GFSNE_925_spd_000.txt.gz
Wind_Speed
31 30 29 28 28 28 29 28 15 18 17 23 24 34 37 38 43 43 43 45 47 48 47 49 48 48 45 44 43 43 38 35 32 28 26 23 21 20
29 30 31 28 28 27 27 28 28 18 17 25 31 32 35 35 41 42 43 43 47 46 47 47 47 50 50 48 44 42 39 35 30 28 26 24 22 21
29 29 30 29 28 28 27 27 27 27 15 30 30 34 34 35 40 42 42 45 48 49 47 47 50 48 47 47 46 45 42 33 29 27 26 24 21 21
28 28 27 27 28 28 27 28 29 30 26 20 33 29 31 33 38 38 46 48 45 47 48 47 48 48 46 47 46 44 39 30 28 26 24 21 20 23
30 28 27 25 27 28 29 28 30 31 31 28 24 31 29 30 33 37 35 37 42 49 51 48 44 48 47 47 45 45 36 30 29 26 23 22 21 23
25 23 24 25 27 29 30 28 29 31 30 28 26 27 27 27 26 22 19 27 29 29 35 38 37 40 41 38 37 34 31 28 26 25 23 23 23 23
26 25 24 28 27 25 30 33 32 29 26 23 14 22 19 16 10 19 17 18 25 35 31 30 28 34 40 39 36 35 29 29 26 21 23 22 22 23
27 30 29 29 25 34 32 31 32 33 27 20 18 14 21 24 24 20 20 7 6 23 22 24 28 25 26 30 37 34 30 23 22 22 26 22 24 24
28 31 34 29 30 38 35 34 36 33 31 31 26 27 27 30 28 23 20 19 13 12 21 10 25 20 29 31 30 27 23 23 23 25 24 25 24 22
27 30 31 28 31 34 36 38 39 39 35 31 32 37 36 36 33 33 31 27 13 12 20 5 17 14 24 30 25 22 21 23 24 25 27 24 22 20
31 32 30 32 31 35 36 36 40 42 39 36 35 39 41 41 40 34 22 8 5 4 20 8 8 6 14 22 26 22 22 22 25 25 25 23 21 20
29 29 29 33 37 39 38 37 33 34 38 40 37 35 34 33 32 26 27 10 4 2 14 9 7 8 3 5 20 20 20 22 23 23 22 21 21 21
27 28 30 37 41 43 39 33 29 41 37 32 31 29 24 28 28 22 19 18 5 2 15 18 8 6 5 4 6 19 23 21 19 20 18 18 19 21
28 30 33 40 44 39 32 31 35 36 29 28 26 23 21 21 22 13 7 5 6 7 25 14 8 9 5 3 3 12 15 17 19 19 19 18 16 17
29 34 38 38 32 30 31 35 33 27 26 24 21 23 22 19 8 0 6 14 21 20 18 11 23 21 13 4 4 6 9 11 14 16 15 17 20 19
30 32 32 31 30 31 31 28 26 27 26 26 22 27 23 8 3 2 5 12 15 17 18 18 15 13 8 13 9 7 11 5 13 14 13 12 13 15
37 27 26 27 27 27 28 28 28 28 26 25 23 21 15 4 3 7 6 6 5 4 11 14 11 11 10 11 6 10 11 6 11 13 9 10 14 15
29 22 22 25 24 26 27 28 30 29 28 28 24 18 12 6 6 5 6 7 5 8 9 6 7 5 3 2 3 9 7 7 8 10 12 9 13 15
23 21 22 25 26 27 29 28 31 31 29 24 21 18 10 7 7 6 6 6 6 9 8 8 4 3 3 1 2 7 6 7 8 8 10 13 8 11
20 21 24 27 27 27 29 31 33 30 27 24 18 13 6 3 6 6 6 5 8 5 5 7 5 4 3 3 2 3 14 14 10 9 8 11 14 12
22 25 27 28 29 26 32 31 33 28 29 22 15 8 1 6 5 7 7 9 9 4 2 2 5 2 3 1 1 3 5 6 11 13 6 6 5 3
24 26 29 28 27 31 32 31 32 28 26 19 14 4 2 5 6 7 8 7 6 6 6 8 4 0 1 1 2 2 7 10 9 11 16 16 6 3
26 27 29 29 29 33 32 31 31 27 23 17 9 2 2 6 8 10 11 10 10 10 6 4 1 2 2 3 3 4 8 12 5 6 2 11 18 20

GFSNE_925_spd_003.txt.gz
Wind_Speed
28 28 28 26 26 25 25 24 14 15 16 23 24 28 32 35 38 41 45 46 51 53 50 49 48 46 45 47 47 45 44 46 45 41 40 43 37 33
25 29 29 26 26 24 23 24 24 15 14 27 27 30 33 36 39 43 45 48 50 50 50 48 47 48 48 48 50 49 49 47 44 42 43 37 34 32
28 29 29 27 24 25 25 25 25 24 13 31 32 32 32 33 36 38 43 43 44 46 49 51 49 50 50 47 46 50 50 51 46 43 45 38 37 32
29 30 28 24 26 25 25 26 24 25 22 16 36 33 31 32 35 35 36 38 41 43 44 45 46 49 47 47 43 47 48 47 47 46 47 41 38 32
30 31 26 27 25 26 28 23 24 28 27 24 24 31 34 33 32 33 35 35 32 37 42 43 43 40 40 41 43 44 46 45 45 49 42 36 31 30
28 24 25 24 27 31 28 24 26 27 26 24 24 28 30 33 30 23 22 22 27 31 34 37 42 38 39 37 45 46 45 47 54 49 46 42 37 27
28 27 27 28 30 28 25 30 29 25 24 22 18 22 24 24 19 27 26 28 27 26 30 33 32 31 33 32 37 40 46 46 40 44 38 36 29 30
30 30 27 31 30 29 31 31 29 28 27 22 20 15 25 27 29 24 26 13 14 20 19 22 28 26 27 28 30 35 46 45 43 36 33 30 28 28
28 30 31 28 31 30 35 34 32 33 32 34 27 28 30 32 32 28 27 22 14 28 18 12 20 24 28 30 32 35 37 36 34 30 29 26 27 24
30 31 31 31 30 35 38 36 35 36 37 33 33 31 35 38 35 34 36 34 34 31 22 11 15 15 20 21 26 34 31 29 28 27 27 27 25 25
31 29 29 32 32 38 39 36 37 39 36 30 33 36 34 42 40 38 26 14 12 14 13 12 5 3 4 14 21 25 25 24 23 23 24 25 26 25
26 25 30 33 39 39 41 37 30 30 30 34 35 32 31 34 32 27 24 10 10 9 14 10 8 7 2 6 15 21 20 20 20 21 23 25 25 25
24 29 30 35 38 44 40 33 31 38 36 30 33 31 30 28 26 26 26 21 13 9 16 18 6 7 3 3 5 15 20 19 18 21 21 23 23 24
30 30 31 37 42 39 37 36 37 35 27 28 27 25 28 26 27 26 24 19 16 17 25 25 7 8 4 2 3 9 13 14 17 21 21 18 20 21
31 31 35 37 36 34 34 36 32 29 27 24 23 25 26 29 30 24 16 7 5 9 4 4 7 15 7 4 4 5 9 7 16 20 19 21 21 21
24 25 34 32 29 32 31 29 26 30 29 27 27 28 28 25 22 18 10 3 4 11 17 16 18 19 10 12 13 11 11 5 17 17 18 16 16 19
31 27 28 25 28 28 28 28 29 30 27 29 28 26 24 23 18 14 9 3 1 1 6 16 17 14 16 11 8 12 10 8 17 17 13 12 14 16
27 24 23 24 25 27 27 29 29 31 30 32 28 25 21 19 16 9 6 0 2 3 5 6 5 5 6 13 11 12 8 10 15 17 12 9 7 11
21 21 22 24 26 27 28 27 29 33 33 31 27 23 21 18 14 3 2 3 4 5 6 5 4 1 2 2 3 5 10 9 15 12 11 8 4 7
18 20 23 25 28 28 29 28 33 32 30 31 27 23 20 15 6 2 2 4 5 3 2 4 6 6 3 3 3 3 6 11 8 7 5 7 9 9
20 23 25 26 28 29 29 31 32 31 32 32 24 21 18 12 5 1 6 9 8 3 1 1 6 5 6 5 3 2 2 7 7 9 5 7 5 7
24 25 26 28 29 29 30 32 31 31 30 28 22 18 14 8 2 6 9 6 4 3 3 4 2 2 4 3 1 1 1 2 6 13 14 10 4 3
26 26 28 29 30 30 32 31 30 30 29 24 19 16 11 7 8 9 10 9 8 5 2 1 1 1 2 3 3 2 2 2 2 4 8 16 13 6

GFSNE_925_spd_006.txt.gz
Wind_Speed
24 27 28 26 26 24 23 20 9 12 14 27 21 26 28 32 34 38 38 37 41 46 46 46 47 45 46 44 44 44 46 46 45 46 47 48 47 47
26 29 27 28 28 24 24 22 21 14 11 27 31 29 32 33 34 36 38 40 43 44 46 45 44 46 47 47 46 41 42 48 49 48 47 47 45 46
27 28 29 29 25 25 24 24 24 22 10 25 30 36 36 34 34 32 34 36 38 42 44 45 45 42 43 45 47 45 45 50 46 48 49 46 44 45
28 27 25 24 26 23 24 29 26 20 16 13 33 30 28 32 34 36 34 33 35 36 39 43 44 38 36 38 41 44 44 45 41 43 46 49 45 49
23 24 28 26 27 27 28 28 26 20 22 22 24 29 29 30 29 30 34 36 33 32 35 34 39 38 37 37 36 36 42 40 37 38 48 52 51 53
24 26 27 27 28 32 30 29 26 26 27 23 22 26 27 28 27 26 28 29 33 31 31 34 36 35 42 35 34 34 37 40 40 43 40 49 53 56
29 28 26 29 32 29 32 32 31 29 28 23 19 23 23 23 20 28 26 30 30 31 32 34 31 29 33 30 27 31 33 40 38 43 41 47 50 56
30 30 31 31 28 33 33 36 35 34 31 27 22 15 25 31 31 27 23 13 15 25 20 23 30 27 29 31 32 35 35 33 35 34 41 44 50 52
30 32 32 30 31 30 34 36 34 35 36 39 31 30 31 33 28 29 27 24 18 35 30 21 27 27 30 33 36 37 34 35 35 35 32 37 40 44
30 31 30 29 31 35 37 35 31 36 39 37 35 34 34 28 33 32 33 33 33 33 29 13 22 21 23 35 33 34 31 31 36 31 35 38 39 35
32 30 30 32 33 40 36 35 38 33 36 37 38 38 35 39 34 32 23 12 12 16 26 18 22 14 10 19 22 24 19 28 34 35 32 30 31 30
31 26 29 32 38 36 40 36 28 35 39 39 35 30 30 33 31 28 25 10 10 9 7 4 2 2 3 4 4 14 19 22 26 28 31 32 32 29
27 31 32 37 31 39 40 30 34 41 36 31 32 31 30 26 26 25 25 20 16 10 22 18 6 5 2 1 3 10 20 20 21 22 24 27 28 26
32 34 34 29 37 39 33 36 38 35 30 29 30 26 27 27 28 30 30 28 24 21 23 22 10 13 3 2 2 5 13 18 21 19 22 24 24 23
33 36 25 32 37 30 33 36 34 28 28 26 26 26 29 33 31 30 27 25 20 12 13 13 16 11 8 2 3 4 7 8 19 24 22 21 22 25
32 24 28 31 31 31 31 31 29 28 29 28 28 31 33 30 26 25 21 17 9 7 9 11 3 6 5 6 11 7 12 4 15 21 22 19 20 24
38 28 26 27 27 29 30 30 31 30 28 29 29 30 30 27 23 24 17 11 3 1 4 13 16 19 14 11 8 12 13 10 16 19 18 14 12 16
34 23 20 24 25 27 28 30 31 32 30 32 30 29 28 23 22 19 13 7 0 2 4 9 10 6 6 17 14 12 11 8 13 17 17 9 8 12
24 22 20 24 26 28 28 29 30 32 34 30 30 28 29 21 20 14 9 2 3 5 7 10 8 2 2 3 3 5 8 11 14 12 14 7 7 14
25 22 23 26 27 28 30 30 33 32 31 30 30 29 23 18 14 8 4 2 3 2 4 8 9 7 2 2 3 4 7 18 12 10 8 7 8 8
25 25 26 28 28 30 31 32 31 31 33 30 28 27 21 17 12 9 4 5 5 3 2 2 6 7 6 4 4 3 6 8 9 12 13 9 4 6
26 27 28 29 29 31 32 32 31 31 30 28 28 22 19 15 11 10 9 6 5 5 3 3 5 6 5 3 2 1 4 6 6 6 8 7 6 3
26 28 30 30 31 32 33 31 31 30 29 27 26 19 16 13 12 9 7 6 3 3 4 3 5 6 4 4 3 2 3 4 4 6 8 8 10 9

GFSNE_925_spd_009.txt.gz
Wind_Speed
20 19 22 23 22 23 23 22 12 13 15 31 27 29 25 25 32 34 35 36 39 40 38 38 40 41 40 42 45 46 46 46 42 44 45 45 48 50
20 24 21 22 22 22 22 23 21 15 12 31 37 30 29 33 36 33 34 40 37 36 38 36 39 39 40 40 42 44 45 43 44 41 40 42 46 49
23 25 22 21 26 26 24 23 23 23 12 34 32 31 38 38 35 34 35 37 33 31 36 40 41 38 36 39 36 38 40 40 42 40 35 35 42 47
26 23 24 26 27 25 25 25 27 25 25 18 30 34 35 34 34 36 36 34 35 35 35 33 38 41 37 36 38 33 33 38 38 39 37 37 45 45
25 25 28 28 28 27 28 27 23 26 26 26 27 33 33 32 34 34 34 35 35 35 34 33 28 36 41 42 41 35 30 33 35 35 36 38 37 52
28 27 28 28 29 30 28 26 28 28 28 27 25 28 30 33 32 31 31 31 34 32 32 30 34 36 38 35 34 34 32 26 30 35 35 34 37 38
29 30 29 30 31 29 30 31 31 31 29 27 23 26 24 27 25 32 29 31 30 31 30 29 31 30 27 30 28 26 26 28 30 31 32 34 39 41
30 31 31 31 29 32 34 33 35 36 33 26 26 15 26 31 32 30 28 13 10 30 23 30 33 35 34 33 30 30 31 31 31 33 36 33 36 37
30 31 32 29 31 30 33 34 32 31 34 36 31 27 31 34 34 33 19 25 17 32 27 23 27 30 34 33 34 33 31 35 37 37 37 36 38 37
30 31 31 31 30 35 35 27 29 35 34 32 33 36 35 39 36 34 32 31 31 31 23 11 27 29 27 24 27 31 36 38 39 39 37 33 32 35
30 30 29 32 34 38 31 31 35 35 37 35 38 38 38 40 35 32 23 13 14 18 20 20 17 15 18 24 32 31 32 35 35 29 32 24 19 25
30 29 29 34 37 26 32 34 31 34 36 38 35 35 31 33 30 30 24 13 12 14 13 9 18 14 4 4 11 17 15 18 17 20 27 39 39 35
28 30 31 36 25 33 37 32 31 40 36 32 31 30 30 30 27 28 26 28 19 13 24 17 8 15 9 5 6 12 7 17 23 26 26 26 30 37
31 32 35 29 39 37 36 34 38 35 30 28 28 27 27 29 31 32 34 34 30 32 30 19 9 14 8 5 4 3 7 16 24 25 26 23 24 24
32 33 38 42 36 31 33 37 34 28 27 26 25 27 29 33 35 32 33 26 27 25 18 14 15 19 19 6 3 3 2 7 19 20 20 22 24 26
28 35 39 34 27 32 32 30 28 27 28 27 27 30 32 31 29 30 25 25 19 14 6 6 9 9 6 8 6 6 5 3 15 23 26 25 23 22
41 31 28 25 26 28 29 29 29 29 28 28 29 30 29 28 28 29 22 19 10 4 2 5 8 12 12 5 6 8 10 12 17 23 26 20 22 24
30 25 25 24 25 28 29 30 30 31 29 31 29 28 27 26 25 23 18 11 3 3 4 6 7 4 6 19 17 11 13 14 14 22 21 15 10 17
23 23 24 25 27 29 29 29 30 32 33 29 29 28 28 26 25 17 12 3 3 4 6 8 8 3 3 4 5 17 8 9 14 14 11 9 9 10
23 24 25 27 28 29 30 30 32 32 31 29 29 27 26 23 17 12 7 5 4 4 5 8 11 10 2 2 3 11 9 13 12 12 11 14 14 13
25 26 27 29 29 30 31 32 31 31 32 29 27 25 24 17 13 12 11 11 7 6 4 4 6 6 4 7 7 6 12 9 11 12 12 13 9 6
26 28 29 29 31 31 32 31 31 31 29 27 26 25 19 16 14 13 11 8 7 5 3 3 8 5 5 5 6 6 9 9 12 12 10 6 4 5
28 29 30 31 32 32 32 31 31 31 29 26 23 22 17 15 12 10 9 8 7 6 5 4 5 8 8 7 6 5 8 10 9 10 7 13 9 5

GFSNE_925_spd_012.txt.gz
Wind_Speed
21 20 22 24 24 24 24 25 15 15 16 31 30 34 33 34 37 31 35 42 43 41 42 41 40 39 39 39 36 37 38 40 41 37 38 35 32 42
22 24 24 26 25 25 27 28 27 20 15 31 35 39 39 35 35 36 39 41 41 36 43 42 39 38 41 44 41 37 37 39 38 37 37 37 32 40
23 25 26 26 26 27 28 28 27 27 13 30 32 39 40 39 38 38 36 37 37 40 40 39 40 41 43 41 42 37 35 35 35 35 34 33 34 32
26 26 27 27 28 29 28 29 29 30 26 18 34 35 38 39 38 38 37 36 39 39 40 41 40 40 42 42 37 39 37 40 37 33 32 30 30 31
27 28 29 28 30 29 30 31 29 30 30 29 29 33 35 35 36 36 37 37 37 36 37 37 35 35 37 36 43 42 40 38 35 35 31 32 29 29
28 28 29 29 29 31 32 31 30 32 32 30 28 29 30 35 34 31 30 31 34 36 37 34 38 34 35 35 35 40 32 31 30 30 30 27 27 31
28 28 28 28 30 30 30 32 33 33 31 27 24 25 26 28 25 31 28 33 36 37 33 30 29 30 31 38 37 35 35 33 30 26 26 28 27 29
29 30 29 30 29 32 33 35 36 35 32 28 24 16 27 30 33 32 28 15 17 36 28 30 33 29 35 34 37 36 37 35 34 31 29 30 29 31
28 30 31 30 31 33 35 36 36 32 31 34 30 31 33 34 35 35 31 29 20 36 33 25 28 29 31 32 35 37 40 40 36 33 31 33 34 33
28 29 31 33 32 35 37 37 29 31 34 35 36 35 36 38 37 35 37 36 35 34 25 14 25 29 31 30 29 31 33 27 29 34 35 35 33 30
29 30 32 33 35 39 39 29 33 35 38 37 38 40 40 40 34 31 26 14 14 18 20 21 23 25 23 34 30 19 20 23 30 34 34 32 31 26
31 32 31 33 37 39 37 37 29 33 36 39 35 35 32 31 30 28 28 14 13 14 18 14 20 19 7 12 14 24 24 34 26 25 23 21 23 17
29 31 31 35 39 45 44 34 31 41 38 32 32 31 30 28 28 26 28 28 22 14 27 26 17 17 11 10 18 22 24 28 12 24 19 21 25 26
32 32 34 39 44 41 35 32 39 36 29 29 29 28 28 29 29 32 34 34 33 35 37 30 18 13 9 10 10 17 18 16 9 23 24 23 25 26
32 34 39 41 38 32 29 35 32 28 27 26 26 28 29 34 35 33 31 32 32 32 29 22 12 14 17 9 9 9 4 9 11 21 23 22 22 24
30 31 36 33 30 30 30 30 27 27 28 28 26 31 32 31 30 30 27 27 25 18 9 7 9 12 15 17 15 6 2 2 8 20 24 25 23 24
38 32 27 27 26 28 28 28 29 29 28 28 29 30 30 29 28 28 26 24 11 6 6 4 5 7 10 7 5 3 5 5 10 21 26 22 22 25
30 25 25 25 25 27 28 29 30 31 29 30 30 29 27 27 26 27 22 14 5 6 7 9 10 7 4 13 19 8 9 10 14 19 20 19 16 20
23 23 23 25 27 27 28 29 30 31 32 29 29 28 27 25 26 19 13 9 5 6 8 11 11 5 4 4 6 22 8 10 17 19 17 15 12 17
23 23 25 26 27 28 30 30 31 31 30 29 29 26 25 22 18 14 14 7 7 7 7 9 11 11 4 4 3 13 15 13 17 17 19 23 22 20
24 25 26 27 28 30 31 31 30 30 31 29 26 24 23 20 15 14 13 12 10 8 5 5 8 5 3 2 6 8 19 17 15 17 16 16 12 11
26 26 28 29 30 31 31 31 30 30 29 26 25 23 21 17 15 14 12 11 9 8 6 6 7 5 5 7 7 8 13 17 20 18 15 11 4 5
26 27 29 31 31 31 30 30 30 30 28 25 23 22 20 16 14 12 11 10 9 7 5 3 6 9 10 10 9 8 13 12 12 13 13 12 7 12

GFSNE_925_spd_015.txt.gz
Wind_Speed
21 23 23 24 25 24 27 24 16 16 17 27 30 32 28 35 30 36 34 44 44 44 46 44 43 40 46 45 42 40 40 40 38 37 33 34 38 37
24 24 26 25 27 26 27 25 24 19 16 32 35 38 39 32 35 34 33 39 41 39 42 43 42 45 46 46 44 43 42 40 36 36 35 35 35 38
25 26 27 28 27 26 27 27 27 25 13 32 36 36 38 37 36 34 35 33 35 39 43 42 43 43 44 46 44 43 41 40 37 33 34 35 34 32
27 27 27 27 28 25 26 27 27 29 29 20 33 34 36 37 36 34 33 34 37 37 40 45 41 41 41 44 44 40 39 38 36 35 35 37 37 33
28 27 28 27 27 26 26 27 29 30 29 28 29 34 34 34 36 33 33 35 36 37 36 39 41 42 44 40 41 41 38 38 32 33 29 31 34 33
28 28 28 26 26 27 30 29 28 30 30 29 28 30 30 33 30 31 33 34 37 35 36 39 41 41 40 37 34 41 40 39 38 34 32 32 31 31
29 28 26 27 29 30 29 28 31 30 30 28 24 26 24 26 25 33 32 36 38 32 34 37 33 33 35 37 35 35 35 36 39 36 30 30 30 24
29 28 27 28 27 30 32 35 36 35 32 29 24 11 21 31 35 30 31 19 18 29 30 37 33 34 34 33 32 33 36 35 36 37 36 34 33 31
29 28 28 27 29 31 34 35 34 39 30 39 30 27 31 35 35 35 30 30 22 38 33 28 30 32 27 28 34 36 35 34 34 35 33 35 33 34
28 28 29 30 32 35 34 33 31 33 35 33 34 35 35 40 36 36 37 36 34 33 29 14 28 24 32 28 35 33 36 31 29 28 26 26 27 30
28 28 32 33 34 36 35 35 37 36 34 33 38 41 41 39 38 35 27 17 15 17 26 25 25 25 32 30 32 26 23 31 31 30 32 32 31 31
28 29 31 34 36 37 40 36 32 33 33 37 34 32 32 33 33 30 29 14 13 14 24 21 24 21 11 25 18 31 32 30 32 39 37 35 31 29
29 31 30 35 37 41 41 33 32 39 35 30 31 30 30 29 29 29 29 30 24 13 30 29 23 22 15 11 19 23 27 26 35 31 8 16 21 26
31 32 34 35 40 40 33 35 38 35 30 29 29 28 28 29 31 33 35 35 34 36 38 35 25 22 10 8 10 18 25 26 23 20 20 22 19 17
33 37 32 38 36 30 34 35 33 28 27 26 25 27 30 34 36 33 32 32 32 33 33 33 29 13 12 7 8 14 14 11 19 15 24 25 21 20
33 28 34 32 30 33 30 29 27 28 28 27 27 31 32 31 31 30 29 29 24 24 16 10 12 11 13 16 14 10 11 3 14 13 24 26 28 26
38 29 25 26 27 27 28 28 28 28 27 28 29 29 29 29 29 31 29 25 11 8 11 15 15 12 11 17 5 5 4 5 9 10 22 22 26 24
28 23 24 24 24 27 27 29 28 29 29 30 29 28 26 26 26 28 24 15 7 8 9 13 15 12 7 5 23 8 9 7 12 17 20 20 20 24
23 23 23 24 26 27 28 28 29 31 32 28 28 27 26 25 25 21 20 17 11 11 11 13 14 6 3 3 8 24 8 10 16 21 22 18 18 20
23 24 25 26 27 28 29 29 30 31 30 28 28 26 24 22 21 17 17 13 12 11 10 11 12 12 5 4 3 15 18 15 18 18 19 25 28 30
24 25 26 28 28 29 30 30 30 30 31 28 25 24 24 22 19 17 17 19 17 10 6 5 12 8 9 7 6 11 24 25 23 19 16 18 11 14
25 27 28 29 30 30 30 30 30 30 28 26 25 24 23 22 17 16 14 13 12 10 7 8 11 9 12 9 7 6 14 21 23 21 19 14 5 3
27 28 30 30 31 31 30 30 29 29 28 27 25 24 23 21 19 15 12 13 12 9 7 5 9 11 12 12 11 8 11 13 14 18 20 14 15 18

GFSNE_925_spd_018.txt.gz
Wind_Speed
26 24 28 27 28 27 26 25 16 16 17 27 30 33 29 34 34 28 38 38 38 42 43 41 40 42 43 44 42 45 46 45 44 43 41 39 40 37
24 28 30 27 27 27 27 24 23 20 16 33 32 36 39 36 33 36 33 38 38 38 39 39 42 44 45 45 43 46 45 44 43 43 42 41 40 37
27 28 29 30 28 26 27 25 24 24 13 34 38 38 38 39 42 36 31 33 35 36 37 38 43 45 45 45 44 43 44 42 43 40 40 39 39 35
27 29 29 28 30 29 25 26 23 26 28 18 36 33 36 39 38 38 33 32 29 34 37 44 48 46 42 44 46 47 48 43 42 40 38 37 37 35
28 29 31 31 31 27 27 27 30 29 27 25 31 35 35 35 38 35 30 30 32 35 40 41 39 39 42 43 42 43 44 44 36 34 36 34 34 35
27 30 31 32 28 30 31 30 26 27 28 29 30 28 32 37 28 27 30 33 36 33 38 38 35 40 39 38 40 40 40 38 36 34 35 34 33 34
30 30 30 30 32 34 32 30 32 32 28 24 21 28 25 29 24 29 30 37 35 35 30 35 33 33 35 37 36 36 35 35 33 33 34 35 34 37
30 29 32 30 29 33 35 39 37 33 32 25 28 21 29 32 32 28 31 24 17 23 29 36 32 35 32 35 32 40 33 35 37 36 37 36 36 35
28 30 31 28 32 34 37 36 30 31 34 37 33 32 32 29 32 34 30 25 22 35 33 28 32 30 28 34 36 36 37 36 38 38 36 36 37 37
28 30 30 32 34 37 37 33 29 32 33 34 34 33 34 38 37 34 35 35 33 31 27 14 28 29 33 31 34 39 38 36 32 24 30 31 29 29
28 27 29 35 35 39 38 33 35 31 31 35 35 36 38 39 36 36 27 20 15 20 27 27 25 30 32 33 35 33 26 28 35 36 32 33 32 30
28 26 30 33 39 39 38 37 28 32 35 31 30 34 31 33 33 31 31 15 14 14 25 22 25 22 10 27 21 27 28 28 33 31 34 35 37 35
28 29 30 36 39 39 40 29 34 40 33 31 32 32 31 28 29 29 30 30 25 16 36 30 24 23 14 8 18 20 24 28 33 34 34 33 36 36
30 31 36 38 40 37 33 37 36 36 32 30 30 27 29 30 32 34 36 36 35 36 40 36 22 22 12 9 8 21 26 28 29 26 28 15 12 30
32 38 35 35 33 32 32 34 33 29 28 26 25 28 30 33 34 33 33 32 32 33 30 28 22 15 12 4 7 14 18 18 25 23 22 25 22 14
33 28 30 30 30 30 30 29 28 28 29 27 27 30 31 29 29 28 28 30 26 15 18 18 21 15 13 15 18 11 16 5 20 18 16 25 25 23
37 25 27 27 27 28 28 29 29 29 27 27 28 28 28 27 27 28 25 24 18 11 17 21 22 18 13 14 8 13 10 8 16 16 15 20 27 24
27 25 24 25 25 27 28 29 29 29 28 29 28 27 25 24 24 26 23 20 14 16 16 19 21 15 2 3 13 14 11 9 16 20 18 18 20 28
23 24 24 25 27 28 28 29 28 30 30 27 27 26 25 24 25 22 19 17 15 15 15 16 15 7 5 5 9 19 8 12 17 21 21 18 17 23
23 23 25 27 28 28 29 29 29 30 28 27 27 26 25 23 22 20 17 14 13 14 10 12 11 10 3 3 3 17 18 15 16 17 19 26 30 36
25 26 27 28 28 30 30 29 29 29 30 28 26 26 26 23 22 20 19 20 19 11 5 5 15 11 10 7 6 11 23 31 26 19 16 19 14 21
26 27 28 29 30 30 30 29 28 29 28 27 27 26 25 22 19 20 18 14 15 12 8 11 12 13 13 8 7 7 15 23 28 26 26 19 4 4
28 28 30 31 31 30 29 29 28 28 28 28 27 26 23 21 21 19 17 15 14 10 10 9 14 15 12 10 9 9 15 18 19 23 23 25 28 32

GFSNE_925_spd_021.txt.gz
Wind_Speed
24 19 24 25 25 27 27 24 17 15 17 27 27 29 27 32 31 31 31 36 40 40 40 40 41 41 41 40 41 43 44 44 45 45 45 46 47 47
17 24 25 25 26 25 25 24 24 21 15 31 32 34 35 31 33 33 33 36 38 37 39 39 39 37 42 42 46 45 47 48 47 46 45 45 43 44
24 24 25 26 25 26 26 25 24 21 13 37 36 36 37 36 40 36 32 32 33 37 35 36 40 43 45 50 49 48 45 45 45 44 45 43 43 44
25 25 26 26 27 27 26 25 24 27 25 17 36 34 35 37 39 38 34 31 28 30 36 40 45 48 47 43 44 44 43 44 43 44 43 44 43 43
22 24 27 27 27 28 27 28 27 26 24 24 29 36 34 32 31 27 37 34 32 33 38 40 41 41 41 39 42 44 43 42 40 42 41 40 38 36
23 27 27 27 27 30 29 27 26 29 30 30 29 25 31 25 29 34 36 32 31 32 36 40 37 34 39 40 40 40 39 39 39 39 41 40 38 34
26 27 25 26 28 29 30 32 33 31 28 24 23 20 28 30 28 32 32 29 36 32 32 28 27 34 36 37 37 37 36 36 36 39 39 37 34 33
26 27 27 27 28 31 34 36 35 34 33 26 22 18 30 30 32 31 29 22 15 26 24 35 31 35 33 33 36 37 38 43 41 39 38 36 35 35
29 29 28 27 29 30 36 35 34 35 31 34 30 31 31 33 35 28 30 28 24 33 31 28 31 31 32 35 36 39 41 41 40 40 39 39 38 39
26 27 27 28 29 35 37 35 32 26 28 29 31 33 34 34 37 34 34 34 31 30 29 15 31 31 35 34 38 39 41 38 37 37 37 34 34 33
25 23 28 30 33 39 38 30 28 23 28 32 32 32 37 36 35 35 26 20 14 23 31 27 29 29 32 36 39 36 34 32 34 35 34 34 34 35
26 25 26 32 38 38 36 31 25 32 33 28 31 32 32 33 32 30 29 16 13 13 34 20 24 22 8 24 26 29 31 34 35 34 37 36 34 32
25 27 29 37 34 38 36 30 32 36 31 30 30 31 30 28 30 29 30 28 24 19 38 31 21 23 15 9 21 25 29 31 32 34 33 32 34 35
25 30 34 31 37 35 32 31 33 32 30 27 28 27 28 29 31 34 36 36 34 34 38 35 19 18 12 9 9 22 28 28 29 30 31 30 29 34
28 33 27 33 32 28 30 31 30 28 25 24 25 27 29 32 34 31 32 31 30 29 28 24 25 20 17 7 8 16 21 18 25 22 20 20 11 14
28 23 29 29 27 28 29 28 26 26 27 26 27 30 30 28 28 27 26 27 24 24 26 23 23 22 16 16 15 14 22 7 25 24 22 19 25 18
33 26 26 26 26 26 26 27 28 28 26 27 28 28 28 27 25 26 24 25 16 16 22 24 27 20 11 14 9 18 18 15 19 21 14 19 25 25
25 23 23 23 24 26 26 28 28 29 28 29 28 26 25 25 25 25 24 20 14 17 18 19 19 16 8 5 10 16 13 11 16 20 18 14 18 27
21 22 22 24 25 26 27 27 28 30 31 28 27 26 26 24 25 23 21 18 15 16 16 16 14 4 4 4 9 31 12 17 16 22 21 22 19 25
21 22 24 25 26 26 28 28 29 30 29 28 27 26 25 22 22 20 19 17 14 14 13 14 14 10 2 3 3 11 35 21 17 16 19 24 22 33
23 25 25 26 27 28 28 29 29 28 30 29 27 26 25 22 21 19 19 21 18 12 6 7 14 11 12 7 5 9 21 36 33 22 16 18 11 22
25 26 27 28 28 29 29 29 28 29 28 27 27 27 26 24 18 19 18 15 14 13 9 13 11 14 14 9 7 8 15 24 34 39 34 25 9 8
26 27 29 29 29 29 29 28 28 28 28 27 27 27 27 23 20 18 17 15 13 10 9 10 11 13 12 10 11 10 16 18 19 25 33 34 36 36

GFSNE_925_spd_024.txt.gz
Wind_Speed
17 14 21 25 24 23 22 21 14 13 14 20 22 24 25 27 29 31 31 31 35 38 40 40 41 41 42 42 41 41 39 41 41 42 45 45 45 44
14 21 22 25 25 22 22 22 21 19 14 29 31 30 29 27 29 31 31 33 36 36 37 39 40 42 41 38 41 43 43 46 46 49 49 50 49 48
21 18 22 25 23 24 24 23 23 22 14 35 34 32 32 34 32 30 28 29 28 31 42 46 47 49 48 47 48 49 50 50 47 46 46 46 46 46
22 19 23 24 26 25 24 25 26 27 25 17 34 34 35 36 33 31 23 30 29 36 39 40 39 42 45 45 47 47 45 45 43 42 43 45 45 45
22 21 23 27 25 25 28 27 25 24 26 28 31 36 36 31 28 29 32 37 32 33 35 36 40 41 41 41 41 41 40 42 43 43 44 45 43 44
23 22 24 26 27 27 26 27 25 29 30 29 30 27 30 22 29 31 34 31 35 32 31 35 35 38 40 39 43 44 44 43 43 43 42 42 43 44
25 26 26 25 28 29 30 30 32 30 28 23 27 27 22 26 25 30 31 36 30 26 34 33 33 33 36 40 41 42 41 40 40 40 40 40 39 40
27 26 29 25 27 30 33 34 34 35 34 29 19 18 25 28 30 31 30 15 16 29 25 33 32 37 35 36 38 40 41 41 42 42 41 42 42 42
26 28 28 24 28 30 33 35 35 35 27 33 27 28 30 33 31 28 30 27 24 35 31 30 32 33 36 36 40 41 42 41 42 41 42 43 42 42
27 25 25 27 29 34 36 33 25 31 25 29 30 32 31 35 36 32 32 32 30 32 28 15 32 32 35 36 40 42 41 40 40 39 40 40 41 41
25 23 26 28 33 36 35 30 28 27 31 30 30 32 36 34 32 31 24 21 14 24 32 23 29 29 32 36 39 36 34 34 36 39 40 40 39 35
25 23 23 30 35 32 37 30 27 32 30 28 30 31 31 31 30 27 27 17 12 13 28 18 26 23 8 26 23 30 32 34 36 38 40 40 39 35
24 25 27 31 32 36 34 27 29 34 29 30 29 29 29 28 30 29 29 27 24 20 36 31 21 24 15 11 22 28 31 33 35 37 37 37 38 38
24 28 28 32 35 32 27 28 31 30 28 27 26 27 28 29 31 33 34 34 33 34 40 37 25 24 15 13 13 23 29 32 32 32 31 32 33 33
26 30 28 31 28 26 26 28 28 26 25 24 24 27 29 32 34 32 32 31 32 32 32 31 29 29 23 11 10 19 22 27 32 24 28 23 22 25
27 22 26 26 25 26 26 26 25 26 26 25 26 30 31 29 30 29 28 30 26 29 27 24 26 25 20 17 17 16 27 9 27 29 26 21 19 10
31 22 23 24 25 25 26 26 26 26 25 26 28 28 29 28 28 28 26 26 18 18 22 26 28 26 19 18 9 18 22 18 22 23 17 15 24 24
22 20 22 22 22 24 25 26 26 27 26 28 28 27 27 26 27 27 25 21 17 19 18 20 23 21 11 8 10 18 16 16 22 23 22 14 18 29
18 20 21 22 24 25 25 26 27 29 29 26 28 27 27 26 26 24 23 20 18 17 17 19 18 7 5 5 9 25 20 20 20 21 23 17 14 31
19 20 22 23 25 26 26 27 28 29 28 28 28 28 26 23 23 21 20 18 17 16 15 17 16 13 4 4 3 14 35 25 20 18 17 23 26 31
22 23 23 25 26 27 27 28 28 28 29 28 27 26 26 23 22 22 19 21 20 12 7 9 19 16 15 10 5 8 23 35 38 30 22 12 11 23
23 24 26 27 28 28 29 28 29 29 28 27 27 27 26 24 22 21 18 15 14 13 9 15 18 17 15 9 6 7 16 24 32 41 43 37 17 9
25 26 28 29 29 29 29 28 28 29 28 27 27 27 25 24 25 20 18 16 14 11 11 12 14 15 13 10 10 9 16 19 19 25 34 42 42 40

GFSNE_925_spd_027.txt.gz
Wind_Speed
16 12 17 18 19 21 20 19 12 10 14 15 16 24 26 28 29 30 33 33 34 35 37 40 42 42 42 42 45 45 45 45 44 43 42 42 42 44
15 17 19 19 20 21 22 21 19 18 12 29 29 29 29 27 31 34 35 35 35 35 35 38 45 47 49 50 49 48 50 47 44 45 44 43 44 46
20 20 20 20 21 24 25 23 21 20 14 36 34 33 36 36 34 32 32 32 30 28 39 45 47 43 43 44 43 42 43 47 47 47 48 48 48 48
22 22 21 23 24 27 27 24 24 26 24 18 33 38 36 38 37 34 29 19 31 32 41 41 40 41 42 39 42 43 43 44 44 46 48 48 47 46
22 23 24 25 27 28 28 27 26 24 23 27 32 37 37 32 32 29 34 30 32 33 37 37 36 36 39 45 43 43 44 43 43 42 41 42 43 44
22 22 23 23 26 28 25 26 23 28 29 29 31 30 31 25 27 31 33 30 32 33 34 32 38 42 41 41 42 43 43 43 43 44 44 44 44 45
21 23 25 22 24 25 28 30 32 28 27 27 27 23 25 26 26 31 31 33 30 26 31 35 33 31 35 40 40 40 40 39 40 41 41 42 42 43
26 27 26 23 23 28 30 31 32 34 31 19 27 20 26 29 32 32 26 24 15 30 23 37 32 34 35 35 38 39 40 41 42 42 41 42 43 44
26 28 28 24 28 31 32 34 35 24 29 30 29 28 31 32 31 30 30 27 26 36 28 29 31 32 34 36 38 40 40 41 41 42 42 42 43 44
27 27 27 29 29 32 35 25 31 28 27 31 30 33 32 35 36 32 32 34 32 32 26 13 30 33 35 36 39 40 40 37 37 37 39 40 41 41
25 23 22 25 30 34 32 30 28 29 31 30 28 33 36 32 32 32 25 22 14 25 29 24 27 29 35 39 38 32 33 35 37 38 41 42 42 42
21 22 20 29 33 31 34 29 24 31 30 26 31 32 32 31 30 27 27 19 14 14 23 19 27 22 9 27 24 34 32 34 36 38 40 42 43 41
24 23 26 29 32 34 32 25 28 33 28 29 28 30 29 28 28 28 28 27 26 22 36 30 23 27 16 11 28 30 32 34 35 36 38 40 42 42
23 27 28 32 33 31 27 26 30 29 27 26 26 26 28 29 31 33 34 34 32 34 41 37 25 25 19 13 14 24 32 33 30 34 34 37 39 40
25 30 30 30 28 26 25 27 26 24 24 23 24 27 29 33 34 32 32 31 31 31 32 32 30 30 25 14 11 22 23 27 33 28 30 29 27 26
25 23 26 24 23 24 25 24 23 23 25 24 25 30 30 30 30 29 28 30 27 29 28 25 26 27 24 23 21 18 28 9 26 29 29 24 27 7
29 22 22 22 23 23 24 24 25 25 24 25 26 28 29 29 29 29 26 26 18 20 27 28 29 27 24 23 11 18 23 21 25 27 25 17 21 8
21 19 20 21 21 23 24 26 26 27 25 27 27 26 27 27 28 29 26 22 18 21 21 23 26 24 19 9 10 17 20 20 27 26 22 10 13 30
17 19 20 21 23 24 25 25 26 28 28 25 26 27 26 27 27 25 24 21 20 20 20 21 20 11 9 7 9 24 23 23 24 22 22 21 11 25
18 20 22 23 24 25 25 26 28 28 27 26 26 27 25 23 24 23 22 21 17 18 17 19 19 17 5 4 4 16 34 30 26 22 20 20 25 29
21 22 23 24 25 26 27 28 27 27 28 27 26 25 26 23 24 23 23 25 23 14 8 13 22 21 18 12 7 9 26 34 37 32 31 14 11 22
22 24 25 26 27 28 29 28 29 29 28 26 26 26 26 24 23 23 23 20 17 14 13 19 21 21 16 7 6 8 18 26 31 39 45 40 20 11
24 25 27 28 29 29 29 28 28 29 28 27 27 27 25 24 25 23 22 20 16 14 16 12 18 16 13 10 11 10 17 20 19 22 33 41 42 42

GFSNE_925_spd_030.txt.gz
Wind_Speed
11 11 12 15 15 16 17 17 11 9 14 15 8 25 27 27 29 30 32 33 34 37 40 42 43 41 39 41 47 49 49 48 49 49 46 46 45 45
14 15 16 18 18 19 19 20 20 19 11 28 30 30 29 29 30 33 33 33 34 36 38 39 37 39 47 53 51 49 47 45 44 44 44 47 47 44
16 18 19 20 21 22 22 24 25 23 16 38 33 33 32 32 33 31 30 30 30 32 33 42 45 47 47 46 46 45 44 44 42 43 42 43 45 44
18 19 21 22 23 24 25 27 26 27 25 24 35 36 35 37 35 32 25 26 32 34 39 39 41 43 44 43 41 41 42 42 44 45 43 42 45 45
18 19 21 22 24 25 25 26 27 24 22 27 33 35 37 33 29 29 29 32 32 33 35 37 39 40 42 41 44 46 45 44 44 43 43 44 43 42
18 21 23 23 23 25 23 23 22 27 28 28 30 31 24 29 31 31 29 31 32 30 32 40 37 39 40 40 41 42 42 42 42 42 42 42 43 44
22 23 23 22 21 22 25 27 28 28 27 25 21 26 26 28 26 32 30 33 29 32 33 34 30 34 37 39 40 40 39 38 38 39 40 40 40 41
24 25 25 23 22 25 27 29 30 32 23 25 25 23 27 28 32 31 28 27 15 26 23 35 32 35 35 36 37 38 39 40 41 42 41 41 43 43
24 26 27 24 26 29 31 31 32 26 28 31 29 28 30 32 31 30 31 28 28 35 31 32 31 35 35 37 39 40 41 41 40 41 42 41 42 44
25 25 25 27 26 30 34 25 28 27 26 29 29 32 30 34 35 31 33 34 32 32 26 14 33 35 36 36 40 41 39 37 37 38 38 39 40 42
26 20 22 26 29 33 30 28 28 27 32 29 26 31 35 31 30 31 26 23 15 27 31 25 27 31 36 40 38 30 31 35 37 38 38 39 41 42
21 22 19 27 31 29 32 28 24 31 30 24 31 32 29 30 28 25 27 21 19 12 23 17 28 23 8 22 22 36 33 33 34 36 38 39 41 41
23 22 23 29 31 32 30 25 26 31 28 29 27 28 28 27 27 26 26 26 25 23 38 30 22 26 15 16 27 28 32 35 33 35 34 35 37 38
24 23 27 30 32 29 26 24 27 27 26 25 25 26 27 28 31 33 34 33 31 33 41 38 25 26 21 13 14 25 34 36 29 32 34 36 36 38
24 29 29 29 27 24 23 24 24 23 23 23 24 26 28 32 34 31 33 32 31 32 31 30 30 31 26 18 10 26 27 26 33 28 32 31 30 32
25 24 26 25 21 22 23 22 22 22 24 24 24 28 29 28 29 28 28 30 28 30 26 24 26 26 26 25 22 22 27 10 31 29 29 29 28 25
28 24 23 21 21 22 22 23 24 24 23 25 25 27 27 27 29 27 26 27 19 21 29 32 30 27 25 26 15 20 25 24 28 31 28 24 22 19
21 19 19 20 20 22 23 25 25 25 24 26 27 25 25 26 26 28 25 21 19 22 22 25 29 28 26 11 9 17 22 26 33 30 30 15 15 19
16 18 19 20 22 23 24 24 27 28 28 25 25 26 25 26 25 24 23 22 21 22 19 22 21 14 10 9 11 21 25 28 31 26 28 22 13 15
16 18 20 22 23 24 25 26 28 29 27 26 26 26 25 23 23 22 22 20 20 20 18 19 18 16 8 6 4 20 29 29 28 26 27 19 22 30
20 21 22 23 25 25 27 28 28 28 28 28 27 25 26 22 23 22 22 25 24 17 8 15 22 21 18 13 9 8 25 32 34 32 32 17 10 19
21 23 25 25 26 27 29 29 28 28 28 26 27 26 25 23 22 22 22 19 19 17 15 22 23 21 14 6 7 9 15 26 30 32 42 35 16 8
23 24 26 28 29 29 29 28 28 29 28 27 27 27 25 23 24 23 22 21 16 15 17 14 19 14 13 7 10 9 16 17 20 23 28 37 36 35

GFSNE_925_spd_033.txt.gz
Wind_Speed
7 9 10 11 13 13 14 14 15 12 15 20 7 24 26 27 28 30 30 30 32 35 37 39 39 39 41 40 39 39 41 44 47 49 49 49 48 46
9 11 12 13 14 15 15 16 17 21 13 27 29 30 29 30 30 30 31 32 34 34 37 39 41 45 45 44 47 48 48 46 44 45 45 45 45 46
11 11 13 14 14 15 16 17 19 21 17 36 31 32 33 32 32 30 29 30 33 38 38 39 41 40 41 42 43 44 45 45 45 44 43 43 43 42
12 13 14 14 16 17 18 19 20 22 25 27 36 33 33 33 32 30 30 34 33 33 37 38 39 40 41 41 41 42 43 43 43 43 44 45 44 43
13 14 15 16 17 17 18 20 22 24 24 26 33 35 33 28 30 33 31 34 31 33 38 36 36 38 39 41 42 42 42 42 42 43 43 43 43 43
15 17 17 16 18 19 20 21 21 25 28 28 29 25 29 33 30 30 29 30 31 33 37 35 37 38 38 40 41 41 41 40 40 40 41 41 41 41
17 19 16 18 20 21 23 24 26 26 26 27 21 25 28 28 27 30 30 33 32 31 35 33 31 36 37 38 38 38 37 37 38 39 39 40 40 40
17 18 19 22 21 21 24 25 26 29 29 24 24 24 29 28 31 30 28 28 15 27 25 39 32 36 34 35 36 37 39 40 41 41 41 41 42 43
18 20 21 19 22 22 25 27 29 22 29 29 29 29 29 32 31 29 32 29 29 34 31 34 33 35 35 36 38 39 39 39 39 40 40 41 42 43
20 22 20 21 21 25 30 25 24 27 25 27 29 31 30 30 34 31 32 33 33 33 27 15 33 33 35 36 40 38 35 34 34 35 37 38 39 41
21 20 19 21 25 29 27 27 29 28 28 27 27 27 34 30 26 27 26 22 16 27 33 24 24 31 35 38 31 24 29 36 38 38 38 39 40 41
20 18 19 23 28 27 29 27 24 29 28 24 28 27 23 25 24 21 24 21 20 12 17 17 27 22 8 18 22 37 31 31 32 35 37 37 38 39
21 23 22 26 28 30 29 25 24 29 26 25 25 25 25 23 24 23 24 24 24 23 36 28 22 26 16 19 29 30 32 33 33 35 33 33 34 36
22 23 25 28 30 29 25 23 25 25 21 21 23 24 25 25 27 29 31 30 28 32 40 36 25 26 23 16 14 28 36 36 30 31 33 35 35 36
21 25 27 27 27 22 20 23 21 19 20 21 22 24 25 29 31 28 29 29 29 30 30 29 29 31 27 22 15 30 28 29 35 29 34 32 32 32
22 19 23 24 20 20 20 18 19 19 21 22 23 26 27 26 27 25 26 28 27 29 24 23 26 27 26 27 23 25 27 12 36 33 34 32 29 27
26 21 20 19 20 20 20 21 21 21 22 23 24 25 26 25 28 26 24 25 20 22 27 30 26 24 24 26 21 22 24 27 32 35 32 28 23 17
22 17 18 18 19 21 22 24 24 23 23 24 25 23 24 24 25 27 23 20 20 22 24 27 28 27 24 15 12 16 21 26 33 32 30 18 15 15
15 17 18 19 20 21 22 22 25 25 26 23 24 25 24 24 24 23 22 21 21 21 23 23 21 15 11 11 16 19 19 27 30 29 30 23 10 12
15 18 20 21 22 22 23 24 26 26 24 24 24 24 24 21 23 21 21 19 19 21 21 20 18 16 10 8 7 22 25 25 26 23 26 20 18 19
19 20 21 22 23 23 24 25 26 26 26 26 26 24 24 21 22 22 21 24 23 18 12 16 22 22 20 15 8 11 24 26 27 26 28 16 9 12
20 21 23 23 24 25 26 26 27 27 26 25 25 25 24 22 21 21 21 19 19 18 18 21 23 19 9 7 9 11 16 24 26 25 30 30 13 6
22 23 25 26 26 26 26 26 26 28 26 26 26 26 25 23 22 21 20 18 18 16 16 17 16 13 11 8 12 11 16 19 20 21 24 30 29 29

GFSNE_925_spd_036.txt.gz
Wind_Speed
5 6 8 9 11 13 15 16 17 14 14 19 14 20 25 26 28 30 31 31 32 35 36 37 37 39 42 42 42 42 42 42 43 44 44 43 44 45
6 8 10 11 13 14 15 17 19 22 14 23 27 26 26 28 29 30 30 31 34 35 37 39 40 39 39 40 41 41 41 42 42 43 42 44 45 46
8 10 11 12 14 15 17 18 20 22 18 30 29 29 30 29 30 28 30 33 36 37 34 37 38 38 38 40 41 41 41 42 42 42 43 44 44 44
10 10 12 13 15 16 17 19 21 23 26 27 31 31 30 31 29 29 32 35 32 34 35 36 37 39 39 38 38 40 41 42 43 43 43 44 43 43
11 12 14 15 17 17 19 20 22 24 27 28 32 31 31 28 29 34 29 30 30 32 35 36 36 38 38 38 39 41 42 42 42 42 42 42 43 43
13 14 15 16 17 19 21 23 24 25 28 28 28 32 26 29 31 29 28 30 30 32 38 35 35 36 36 38 40 41 40 39 39 40 41 42 42 42
15 16 17 17 19 20 22 23 25 26 25 26 25 23 28 28 26 28 28 31 32 31 34 33 32 35 37 37 37 36 35 36 38 39 39 40 42 42
17 17 18 19 19 20 23 24 26 27 27 26 24 25 30 30 29 29 31 24 15 29 25 38 33 37 35 34 36 37 39 39 38 38 39 41 42 43
17 18 20 19 20 22 23 26 27 27 27 32 28 29 30 30 32 31 29 30 28 35 33 33 32 34 34 36 37 37 38 38 37 38 38 39 40 42
17 19 20 21 21 23 28 27 25 28 27 27 29 31 31 31 30 33 31 33 34 32 28 15 32 31 33 36 39 35 32 31 31 34 37 39 40 41
17 19 19 22 21 26 28 26 30 29 26 25 28 31 30 33 29 26 26 22 16 27 31 23 23 30 35 38 28 22 28 36 35 35 35 36 37 38
19 21 21 20 24 26 28 30 28 29 27 30 29 27 25 24 23 21 22 21 20 13 18 19 26 22 8 19 22 37 30 30 32 34 34 34 34 35
22 22 22 23 26 29 28 28 26 29 29 28 25 24 23 23 22 21 22 22 25 23 35 27 22 25 17 21 29 30 33 31 33 37 34 34 35 35
23 22 25 27 29 29 27 22 24 26 22 22 22 23 23 24 25 26 29 28 28 33 40 35 23 26 24 16 15 30 35 37 32 33 33 35 37 38
21 23 27 26 27 23 20 22 20 18 19 20 21 23 24 27 30 28 28 27 29 30 31 31 30 30 28 24 19 31 30 30 33 30 37 34 35 32
22 25 25 24 20 20 19 17 17 18 20 21 22 24 26 25 26 24 25 26 25 29 27 25 25 28 29 28 28 27 30 13 33 33 35 36 31 27
27 24 20 19 19 18 18 19 19 20 21 21 22 24 24 24 25 24 24 24 21 23 27 27 25 26 28 30 25 27 27 27 28 33 33 28 27 22
21 17 16 17 18 19 20 21 22 22 22 23 24 23 23 24 25 26 24 21 20 23 23 26 27 26 24 23 17 20 24 24 29 30 29 22 19 25
13 14 16 17 18 19 20 21 24 25 25 23 23 24 24 23 24 23 23 21 21 22 23 25 23 17 11 13 25 18 21 28 27 25 24 26 19 25
14 15 17 18 19 20 22 23 25 25 24 23 24 24 23 21 22 21 21 21 20 22 23 22 20 18 11 12 13 33 30 23 23 20 23 26 23 17
16 16 17 18 20 22 23 24 25 25 26 25 24 23 23 21 22 22 22 25 24 20 14 18 24 28 25 22 11 16 26 25 26 23 24 18 11 12
17 18 19 20 22 23 24 24 25 26 25 23 24 24 24 22 22 22 22 21 20 20 21 23 25 23 19 14 11 15 23 26 25 24 19 23 14 6
18 19 21 23 24 24 24 24 24 26 25 24 24 25 25 24 24 22 22 21 20 20 18 20 21 20 18 17 18 16 20 22 22 23 20 24 22 21

GFSNE_925_spd_039.txt.gz
Wind_Speed
4 6 8 9 10 12 13 15 14 9 10 16 18 17 25 24 25 27 29 32 32 34 35 35 36 38 39 39 39 38 38 39 38 39 38 39 39 41
6 8 10 10 12 13 15 16 17 18 12 20 22 23 25 25 27 30 31 32 31 34 36 36 38 35 37 38 38 39 39 40 40 39 39 40 40 41
8 10 11 12 14 15 16 17 19 19 15 24 25 24 25 29 29 29 28 32 34 34 37 34 35 35 37 38 38 39 39 39 39 39 40 40 40 41
10 11 13 13 15 16 17 18 19 22 24 24 25 25 27 26 31 29 28 29 36 30 32 35 36 37 38 37 38 38 38 39 39 40 40 41 41 41
11 13 14 15 16 17 18 19 21 22 24 26 28 27 27 28 29 25 32 27 27 30 34 36 36 38 35 35 37 37 38 38 40 41 41 41 41 41
13 14 15 16 18 18 19 21 22 23 24 25 28 30 27 26 26 27 25 26 27 31 34 37 35 35 34 36 38 37 37 37 37 37 38 38 39 39
15 16 16 17 18 20 21 20 23 23 24 26 26 27 25 26 24 25 26 28 34 30 31 38 26 35 36 35 35 34 33 34 36 37 38 39 40 40
16 16 18 19 18 19 21 22 23 26 27 26 26 24 28 26 26 26 30 27 11 28 21 43 30 35 34 33 33 36 36 34 34 36 36 37 39 39
16 17 18 18 20 20 21 23 24 29 30 32 30 25 28 28 30 31 29 26 28 33 30 36 32 35 34 36 34 36 37 36 33 32 33 34 36 37
17 18 19 20 19 22 22 24 25 27 27 27 28 27 28 32 32 28 30 31 34 30 25 17 34 36 33 35 39 35 31 27 28 31 36 36 36 37
17 17 19 21 21 22 26 26 27 27 28 27 27 32 33 31 29 27 24 22 17 27 26 24 23 29 36 40 30 22 26 32 32 31 32 35 37 37
18 20 20 21 21 24 27 26 27 27 28 30 29 28 25 25 24 24 24 20 21 18 22 16 25 21 7 22 22 34 30 30 31 32 32 35 37 35
19 20 20 22 25 29 28 27 27 29 28 27 25 23 24 24 25 24 25 24 25 26 37 28 24 27 17 22 28 31 35 33 32 37 34 34 34 36
21 21 22 25 30 28 27 24 24 26 22 21 22 23 24 25 26 28 31 31 32 35 41 35 27 27 26 19 15 30 34 36 32 34 34 33 36 35
22 23 27 29 27 23 21 23 20 18 19 20 21 24 24 28 32 30 30 28 30 33 35 33 31 31 28 26 22 32 31 37 36 29 30 33 34 36
23 25 26 24 19 19 19 18 18 18 20 21 23 26 27 27 27 26 26 27 27 30 31 27 26 28 28 28 29 30 32 18 32 30 32 34 34 31
27 23 20 17 17 18 17 18 19 20 21 22 23 25 26 25 26 26 26 26 22 25 29 30 27 28 31 32 26 30 28 30 29 31 30 30 33 29
19 16 16 17 17 18 19 21 22 23 22 23 25 24 24 25 26 27 25 23 22 24 25 28 28 27 26 22 23 22 26 27 30 32 30 21 26 31
13 14 16 17 18 19 20 21 24 25 26 24 24 25 25 25 26 25 24 24 23 23 26 27 24 20 12 13 30 18 21 29 30 28 26 24 23 32
13 15 16 18 19 21 22 23 25 26 25 25 25 26 26 24 24 24 24 23 23 24 24 25 22 21 12 13 15 37 32 28 26 27 27 28 26 25
15 16 17 19 21 22 24 25 26 27 27 27 27 26 26 24 25 24 25 28 27 22 17 21 26 29 29 26 14 19 31 32 29 29 28 22 13 16
16 18 20 21 23 24 25 26 27 27 27 26 27 27 26 25 25 25 24 23 23 23 24 25 28 28 21 16 11 17 26 30 29 28 25 19 14 6
18 20 22 24 25 26 26 26 26 28 27 27 28 28 27 27 27 26 25 24 24 21 21 23 25 23 20 17 20 17 22 23 24 26 25 24 21 20

GFSNE_925_spd_042.txt.gz
Wind_Speed
3 4 6 6 8 10 11 12 10 5 8 8 17 14 28 28 27 27 30 35 31 33 33 35 37 36 38 37 35 36 35 35 34 34 35 34 35 36
4 6 8 9 11 13 14 14 15 17 8 17 23 26 28 28 27 31 33 31 34 33 36 35 37 36 34 35 36 37 37 37 36 36 36 35 35 35
5 8 10 11 13 13 14 17 19 20 14 23 26 27 27 28 33 29 32 33 33 32 34 34 33 34 37 37 37 38 39 37 37 37 37 35 36 35
7 10 12 13 14 16 16 18 18 20 23 22 24 25 25 27 30 35 31 31 32 34 29 34 35 36 37 37 36 36 36 37 36 36 35 36 36 37
10 12 14 15 17 17 17 17 17 21 24 22 25 24 28 29 29 29 29 31 30 30 32 34 37 35 35 36 35 36 37 37 35 35 35 36 35 36
12 14 15 16 18 17 17 22 20 21 23 22 22 26 25 24 27 26 28 26 29 29 35 34 29 36 33 34 36 35 34 33 33 32 33 33 34 34
13 15 15 14 16 19 20 19 21 23 23 21 22 27 25 24 23 24 25 29 35 32 28 34 27 35 36 34 34 33 31 32 34 33 33 33 32 33
16 16 17 17 16 17 19 21 21 24 22 23 25 22 25 24 23 24 28 27 13 24 22 37 31 34 33 33 34 35 35 33 34 34 33 33 33 34
16 18 19 18 18 21 21 22 23 22 26 30 29 26 28 29 29 28 30 27 25 32 26 32 32 33 32 34 34 35 38 33 29 28 28 29 31 33
16 18 18 19 19 21 24 23 23 26 25 26 29 30 29 33 32 30 28 28 31 30 25 19 33 35 36 32 37 36 31 26 26 29 32 32 32 32
16 17 18 22 22 22 24 26 25 27 23 28 29 29 30 32 29 28 24 22 21 28 27 23 27 29 34 38 29 24 24 31 31 30 30 32 31 32
18 21 19 19 22 23 26 26 23 23 30 29 27 32 27 26 26 24 25 21 22 21 18 17 26 21 10 24 19 33 30 30 31 31 30 32 31 31
20 22 21 22 24 25 27 25 25 28 25 25 28 25 27 27 26 26 24 23 26 27 36 27 25 27 18 22 25 30 34 35 32 36 33 31 29 30
22 22 24 24 27 27 25 23 23 24 23 23 22 25 25 27 28 30 33 33 32 34 40 34 26 28 27 23 18 30 33 35 32 33 34 34 32 32
22 23 25 25 26 22 21 21 21 22 23 21 22 24 26 30 33 31 34 31 33 34 34 33 32 31 28 27 24 32 31 33 34 29 30 33 32 32
22 23 22 22 18 19 20 21 22 21 21 22 24 28 29 28 29 28 28 30 28 31 29 27 26 28 28 29 29 30 33 20 32 33 32 33 33 33
24 22 22 19 20 19 19 20 21 22 22 24 25 27 28 27 28 28 27 27 23 25 30 31 28 29 32 33 29 32 30 30 31 31 30 30 36 31
17 17 17 18 17 19 20 23 23 24 24 25 26 26 26 26 27 29 25 24 22 25 26 28 30 29 26 24 24 27 26 27 31 31 30 26 29 32
16 18 19 18 19 20 21 22 25 27 27 26 26 27 27 25 26 26 26 24 24 25 27 27 25 21 12 14 26 18 20 28 30 28 27 26 26 32
17 18 20 20 21 22 23 24 27 28 27 27 27 26 26 24 25 25 25 23 23 24 24 27 22 21 13 14 17 40 28 27 25 25 28 29 30 32
20 20 21 22 23 24 25 27 26 27 28 28 29 27 28 25 25 25 25 28 28 23 20 22 27 29 31 30 15 20 31 28 28 28 29 25 19 20
20 21 23 24 25 26 28 28 28 29 28 28 29 29 29 26 25 25 25 24 24 24 26 27 28 28 24 18 12 19 26 32 34 30 29 25 18 7
23 24 27 27 29 29 29 29 28 29 30 30 30 30 29 27 28 26 26 25 25 25 21 25 27 24 22 20 22 19 24 27 26 26 29 28 25 23

GFSNE_925_spd_045.txt.gz
Wind_Speed
4 3 1 2 4 5 6 6 4 3 4 4 8 15 30 28 27 25 25 30 28 29 31 32 30 33 32 32 31 31 32 32 33 34 35 35 35 35
3 2 3 5 7 7 9 10 9 11 4 12 22 26 28 26 28 26 33 30 31 30 30 30 32 32 31 31 32 34 33 34 35 36 35 36 36 36
2 4 6 6 9 9 8 10 14 15 11 19 21 24 26 29 31 33 33 31 31 28 31 32 31 30 34 33 35 34 34 35 35 34 35 35 35 34
3 6 8 9 11 10 13 14 14 15 16 18 22 24 26 27 31 33 31 29 29 30 30 29 33 33 35 34 33 33 34 34 33 34 36 36 36 34
4 8 9 10 12 13 13 14 15 19 22 24 24 24 26 30 29 29 28 28 29 27 30 33 31 33 30 32 33 31 33 34 33 33 33 33 34 33
5 8 10 11 11 11 13 17 18 18 20 24 22 22 23 27 26 26 27 27 30 30 32 33 29 29 33 32 32 32 31 30 30 30 31 32 33 33
8 9 10 10 12 13 15 16 19 21 22 21 16 19 23 24 22 25 26 30 34 32 30 30 23 33 33 31 30 31 28 31 33 34 33 33 32 32
10 11 12 14 15 12 16 18 18 22 21 19 19 19 23 23 25 26 28 27 13 25 14 26 31 32 32 30 30 32 35 34 32 33 33 30 30 29
11 13 14 14 13 15 17 19 20 18 20 24 24 23 24 26 31 28 26 24 25 31 28 28 33 32 31 31 32 35 35 33 31 28 27 26 27 29
10 12 14 17 18 18 20 20 18 21 26 24 24 28 29 29 26 26 27 26 29 32 26 20 29 33 33 32 34 34 30 27 26 27 31 31 29 29
12 13 15 17 17 19 22 23 24 24 25 23 24 24 25 29 26 25 24 22 21 28 27 23 22 26 33 35 28 23 23 26 32 31 29 29 30 29
15 16 17 17 19 20 22 22 20 22 27 25 23 31 29 27 23 22 24 21 22 19 19 11 23 19 9 20 18 31 33 30 30 31 31 29 29 28
18 20 19 20 20 23 23 23 22 24 21 24 27 26 27 27 26 27 25 23 25 25 35 27 23 26 18 22 25 28 33 36 32 34 32 30 27 23
19 20 21 20 22 22 20 18 20 20 24 23 21 23 24 27 29 31 32 30 30 32 37 34 25 27 26 23 19 28 30 34 32 33 32 32 28 27
18 19 19 20 20 17 18 18 18 21 21 20 20 24 25 30 33 30 33 30 31 32 32 30 31 32 28 26 24 32 30 30 33 29 27 28 29 29
19 15 16 16 16 17 17 19 20 19 19 20 23 26 28 26 28 27 27 29 27 32 31 26 26 29 29 29 28 30 33 20 29 30 31 31 32 30
19 17 19 19 19 17 18 19 21 21 20 22 23 24 26 26 28 28 25 26 21 26 31 34 31 29 31 32 30 32 32 30 31 31 28 29 32 32
14 16 17 16 16 18 19 22 22 21 22 23 25 24 25 26 26 28 25 23 23 26 26 29 29 28 28 25 27 33 31 29 31 29 28 26 30 33
14 17 17 17 18 20 21 21 23 25 27 24 24 26 27 27 26 26 25 23 24 25 28 28 24 21 12 13 26 20 23 27 30 29 28 28 27 36
18 18 19 20 20 20 22 23 25 26 26 27 28 27 27 25 25 24 25 23 23 25 26 26 23 22 12 15 17 39 26 26 24 25 27 30 32 36
20 21 21 22 22 23 24 25 26 26 26 28 29 27 28 25 25 25 26 28 28 23 20 23 28 31 33 30 15 22 31 28 27 28 28 25 20 23
21 22 24 24 25 25 27 27 28 28 30 29 28 29 29 26 25 26 25 24 24 23 25 29 29 27 24 18 12 20 24 30 33 29 28 26 19 7
22 23 25 26 26 26 26 27 28 30 30 30 30 30 29 27 28 26 26 25 25 24 23 25 27 24 22 21 22 19 25 28 26 26 31 30 28 27

GFSNE_925_spd_048.txt.gz
Wind_Speed
8 7 6 5 4 4 5 6 5 2 3 4 5 5 25 26 27 23 24 26 28 28 28 28 28 28 30 31 31 30 28 30 31 34 33 34 35 35
7 6 5 4 4 5 6 8 8 9 3 5 16 26 26 27 26 24 28 26 25 25 27 27 28 29 29 29 29 31 32 32 33 34 35 34 35 35
6 4 5 5 5 7 8 8 10 13 9 14 18 24 25 27 29 30 30 30 29 26 26 28 28 28 29 30 31 32 32 33 32 33 35 34 34 34
4 3 5 7 8 9 10 11 13 14 18 17 20 24 25 26 28 29 30 29 30 28 27 28 29 30 29 30 30 29 31 32 33 33 33 34 35 34
2 5 7 8 11 12 12 12 14 17 19 22 20 24 24 27 28 28 26 28 29 27 29 28 29 29 28 28 29 32 32 32 31 33 33 33 33 34
7 7 8 10 11 10 11 14 15 15 17 22 23 22 23 27 24 25 25 26 29 29 30 28 28 25 29 32 31 31 29 29 30 30 31 32 33 33
6 7 7 8 10 12 14 13 15 19 21 24 18 19 19 19 22 24 24 28 30 30 29 23 27 29 35 31 31 31 29 27 29 33 33 33 33 33
5 7 8 9 9 10 12 15 16 20 21 15 17 15 20 22 24 24 26 25 11 22 15 26 31 31 33 33 31 30 32 33 32 33 32 32 31 30
5 7 7 9 11 14 15 15 16 17 18 22 22 23 24 27 30 29 24 20 24 33 28 28 29 31 31 31 30 33 34 32 29 28 28 28 28 28
6 6 9 12 14 14 17 19 19 19 20 20 24 28 28 26 23 24 26 27 28 29 26 19 26 30 32 33 33 33 29 27 26 26 27 30 32 32
8 9 12 15 15 16 19 21 19 19 21 22 21 21 22 25 27 25 24 20 21 24 28 22 18 27 30 34 25 23 23 25 29 32 32 30 29 30
10 15 15 15 16 17 19 19 18 24 24 20 21 28 28 25 21 19 22 20 20 15 11 8 21 20 9 19 17 26 32 32 30 30 31 31 29 29
16 18 18 16 16 18 19 20 19 20 20 23 27 27 27 26 25 25 24 23 23 23 33 26 19 23 17 18 20 27 31 36 34 34 31 29 28 26
16 18 18 15 18 19 16 16 18 18 20 21 20 22 22 26 30 29 30 28 28 32 36 33 20 23 25 24 18 27 29 32 32 34 32 31 25 25
16 17 15 16 16 15 14 15 14 17 19 20 20 23 25 29 31 30 30 31 32 34 33 30 30 31 27 27 25 31 29 29 34 31 28 28 27 25
15 10 13 14 12 13 14 15 17 17 16 19 23 26 26 25 28 28 26 27 26 33 34 27 25 27 30 30 29 31 32 19 29 32 31 30 30 29
14 16 15 16 18 19 19 19 20 20 19 22 21 22 24 24 26 28 26 26 22 25 31 36 31 28 30 33 30 32 30 30 31 30 28 31 32 31
11 13 16 17 17 18 18 21 22 21 22 23 22 22 24 25 26 27 24 23 23 26 26 30 30 28 27 24 28 34 32 30 33 31 29 26 30 31
12 15 16 17 19 21 21 21 23 26 26 24 25 27 27 26 25 25 24 22 23 25 27 29 25 20 11 13 26 22 27 29 30 31 30 28 28 34
14 15 17 19 20 20 21 22 25 27 25 26 27 26 27 25 25 24 24 23 23 25 26 26 22 21 12 15 17 40 27 25 24 26 28 30 32 37
16 17 18 20 21 22 23 24 25 25 24 27 29 28 29 25 25 25 25 27 27 24 21 24 29 32 33 30 15 23 33 28 26 28 29 25 23 25
17 19 20 21 22 23 24 25 27 27 28 29 29 29 29 27 26 26 25 24 25 25 27 31 31 28 25 19 12 23 26 32 34 30 27 29 23 7
19 20 21 22 23 23 24 25 27 28 29 31 31 30 29 27 27 27 27 24 25 25 25 27 28 25 23 22 23 20 26 29 28 27 30 24 24 27

GFSNE_925_spd_051.txt.gz
Wind_Speed
10 7 8 5 4 4 4 4 5 2 3 4 5 7 12 24 24 22 21 24 23 24 25 25 26 26 27 28 29 29 29 28 30 31 32 32 33 33
11 8 8 6 6 7 6 6 8 9 3 8 8 19 22 23 24 23 25 26 25 23 25 25 26 26 27 28 28 29 30 32 32 32 32 33 33 33
6 7 4 3 7 8 7 8 9 11 9 10 17 22 22 24 26 26 28 30 31 27 26 26 26 26 27 28 29 30 30 31 31 31 32 32 33 33
7 4 2 6 7 9 10 9 11 13 15 14 20 22 23 24 26 28 29 30 31 30 28 26 26 27 27 27 28 28 28 29 31 33 34 33 33 33
4 3 7 7 11 11 10 13 13 14 16 18 17 21 23 24 26 29 30 29 28 30 28 26 26 26 25 24 26 29 31 32 32 32 32 32 32 33
7 7 6 9 10 9 9 12 13 15 15 19 23 22 23 23 25 25 24 25 28 33 31 26 23 22 27 31 31 30 29 29 30 31 31 32 32 32
5 5 5 6 6 8 12 13 13 14 19 22 19 20 19 19 20 25 25 26 26 30 27 23 22 29 35 32 32 30 27 27 28 29 31 33 34 33
5 4 4 5 7 9 10 11 14 18 21 17 18 15 17 22 24 23 24 21 9 17 19 31 27 32 35 33 31 28 30 31 31 31 32 32 33 32
3 6 7 8 10 12 12 12 13 16 19 21 21 22 23 26 29 28 24 21 23 29 29 33 24 31 35 33 31 31 33 31 29 28 28 29 30 30
7 6 8 11 13 14 15 17 18 17 19 20 23 27 27 26 24 24 26 29 26 25 20 21 21 28 34 32 35 31 28 27 26 25 26 28 30 32
5 7 10 13 14 14 17 19 18 19 20 22 19 20 22 25 26 25 25 19 20 22 21 23 18 27 30 33 21 23 23 24 27 30 32 32 32 32
8 12 13 13 14 15 17 18 18 23 23 20 20 27 26 24 21 18 21 21 19 15 5 9 20 16 10 19 18 26 33 32 30 30 30 31 31 31
14 15 15 14 14 16 17 19 18 19 18 22 25 25 25 25 26 25 23 22 22 23 30 23 19 23 17 18 19 27 33 36 35 36 35 30 28 27
14 16 17 14 17 18 16 16 16 16 18 20 21 23 25 29 29 28 27 27 26 32 37 31 21 24 25 25 20 27 29 32 35 36 35 33 25 24
14 14 14 16 16 15 14 14 14 15 17 19 20 23 26 28 28 30 31 30 30 32 32 29 29 31 27 27 26 32 30 28 35 33 29 30 32 32
15 12 15 14 12 12 13 14 15 15 15 18 22 25 25 26 27 28 28 28 26 32 32 28 24 27 30 30 29 31 33 19 27 30 30 30 29 28
13 16 15 15 16 17 18 17 17 18 19 21 20 21 23 25 27 28 28 27 21 25 29 36 31 29 31 32 30 32 31 30 31 29 25 29 30 28
11 12 14 14 16 18 19 21 21 21 22 23 22 23 24 26 27 27 23 22 23 25 26 31 30 28 25 22 28 33 33 27 32 30 27 26 29 28
10 12 13 14 17 19 19 20 22 24 24 23 23 27 28 27 23 26 25 23 24 24 27 29 26 19 11 13 26 21 27 31 31 30 29 28 29 34
11 13 15 16 18 19 20 21 24 25 25 23 26 27 27 26 25 24 24 24 24 26 27 27 23 21 12 15 17 40 27 25 24 26 27 28 32 36
15 16 17 17 18 19 20 22 23 25 22 24 27 28 28 25 25 25 26 28 27 25 23 26 30 32 32 30 15 24 34 28 24 27 29 24 22 22
16 19 20 19 20 20 20 22 24 26 27 27 28 29 29 27 26 27 25 26 26 24 26 29 31 29 26 20 13 24 27 33 31 26 26 26 20 6
17 20 21 20 20 20 21 22 24 27 28 29 30 30 30 27 28 28 28 27 25 26 25 28 28 26 24 23 24 22 27 29 28 27 25 20 23 25

GFSNE_925_spd_057.txt.gz
Wind_Speed
27 23 21 17 14 12 10 9 6 4 3 3 3 6 7 11 14 20 18 18 18 18 21 23 24 23 24 25 25 26 26 26 27 28 29 30 29 31
23 21 18 14 12 9 11 9 7 4 1 4 4 8 12 17 18 19 19 19 20 21 23 24 24 23 24 24 25 26 26 27 28 29 30 30 30 30
22 21 19 15 13 11 7 6 4 5 5 5 9 8 15 17 19 20 20 21 19 21 23 23 22 21 23 24 24 25 26 27 27 28 28 29 28 29
20 18 17 12 10 6 3 2 5 3 6 8 7 12 15 17 19 20 21 20 20 23 23 21 22 22 22 22 22 23 24 25 27 29 29 31 31 32
19 14 12 9 5 2 3 3 4 6 11 9 8 9 12 17 17 18 18 18 20 22 21 21 19 20 20 22 23 25 27 29 30 30 31 32 33 33
13 11 8 7 5 2 4 6 5 8 8 10 11 11 10 11 15 14 18 18 21 22 22 18 19 21 24 26 26 27 27 27 28 28 30 31 32 32
10 6 5 3 2 2 4 3 6 9 8 9 11 10 12 13 15 17 19 19 21 23 18 17 20 22 25 24 24 24 24 25 26 27 29 30 31 32
10 6 5 4 4 2 2 3 5 8 10 7 10 13 15 16 16 17 18 18 13 14 13 25 25 27 25 22 23 26 28 29 30 29 30 30 30 30
9 7 6 2 1 5 5 5 6 8 10 12 14 15 16 17 19 18 18 19 20 28 25 27 26 26 22 22 25 29 29 29 28 27 27 27 28 29
7 5 3 3 5 6 7 8 9 9 11 11 13 16 16 15 16 16 20 21 22 26 19 17 21 23 24 24 27 27 24 24 25 25 26 27 29 30
5 4 6 6 6 6 8 9 9 12 15 12 11 13 14 17 16 15 16 15 16 20 19 19 17 23 26 26 17 19 21 24 27 30 30 30 30 30
4 5 6 6 7 8 6 6 7 13 11 13 14 17 16 15 13 11 10 12 14 14 5 7 20 18 10 16 15 25 24 25 27 28 29 30 29 29
4 4 6 6 8 9 9 10 9 11 10 15 14 14 14 14 12 12 12 11 14 18 23 15 15 22 14 17 21 22 29 33 29 29 28 25 24 22
5 7 6 8 8 8 7 7 8 10 12 10 10 12 13 15 17 18 19 18 17 24 30 22 16 19 21 23 21 25 27 31 30 28 26 25 24 23
5 4 8 8 6 5 5 7 7 9 8 8 10 13 15 17 20 21 22 23 24 26 23 18 22 25 22 24 25 35 27 26 31 27 22 22 24 22
6 8 7 5 5 5 6 6 7 7 6 9 12 14 15 16 19 20 20 23 24 25 20 18 18 20 26 27 26 32 31 16 27 28 27 28 27 25
5 5 5 6 7 7 8 8 8 9 9 10 11 13 14 16 20 20 19 17 14 21 29 30 22 21 25 28 28 29 29 30 27 30 26 29 29 26
3 5 5 6 7 9 10 12 11 11 12 14 14 13 16 18 19 22 17 17 19 22 23 27 26 26 21 19 25 32 28 28 30 28 26 25 29 26
5 6 7 9 11 12 12 12 13 15 16 16 15 17 18 19 18 19 21 19 22 22 23 25 23 19 11 13 23 17 25 31 29 27 25 24 27 31
6 8 10 11 12 13 15 15 16 17 17 17 19 19 20 18 19 19 20 21 21 24 25 24 21 19 16 15 17 39 22 23 25 26 26 26 28 32
9 10 12 13 14 15 16 18 18 19 17 19 20 20 21 19 21 22 23 25 25 23 22 25 27 28 29 28 16 25 31 22 23 28 28 23 20 18
11 13 15 16 17 18 18 19 20 20 21 22 22 22 22 22 22 23 25 25 25 24 27 30 28 26 23 20 18 25 28 30 28 25 24 24 20 5
13 15 17 18 19 20 20 21 21 22 23 24 24 24 24 23 25 26 27 26 26 25 26 28 27 25 22 22 24 24 28 29 27 28 29 25 27 27

GFSNE_925_spd_060.txt.gz
Wind_Speed
27 26 26 25 21 16 15 11 5 4 3 3 3 9 10 10 15 15 21 21 17 19 20 22 22 23 23 24 24 25 25 26 26 27 27 28 29 29
21 23 17 11 7 10 10 8 6 6 3 5 6 7 8 12 17 18 18 16 19 19 21 22 23 23 23 24 24 24 25 25 26 27 28 28 28 29
18 17 17 17 11 10 8 7 5 6 5 4 8 11 12 12 13 12 15 17 18 19 21 22 23 23 23 23 24 24 25 26 26 27 27 27 27 28
19 21 21 18 15 10 6 6 4 4 5 4 4 6 12 11 12 14 16 17 18 20 21 21 22 22 23 22 22 22 24 25 26 27 28 29 30 31
23 21 18 15 12 10 7 6 5 2 4 4 5 5 8 13 13 15 16 16 17 19 20 20 21 20 21 22 23 24 26 26 28 29 30 30 31 32
22 19 15 13 10 8 6 4 3 3 4 6 9 10 10 11 13 14 15 15 18 18 18 19 18 19 22 22 24 25 26 25 25 26 27 29 29 31
17 15 11 9 7 5 5 4 3 4 5 8 9 9 11 13 13 14 16 17 19 20 17 15 17 20 22 22 24 23 22 22 24 25 27 29 30 31
16 12 9 8 7 6 5 4 5 6 8 9 9 12 13 13 13 13 15 17 13 10 13 23 22 24 24 22 23 25 26 27 27 28 29 30 30 31
12 9 7 5 4 1 2 4 6 6 8 10 12 13 14 13 12 13 14 15 18 23 22 25 23 24 22 22 24 28 29 28 27 26 26 27 28 29
9 7 4 2 1 1 4 6 7 7 8 8 10 13 13 11 10 14 16 19 20 21 17 20 20 22 24 25 28 29 27 25 26 26 26 27 29 31
5 4 1 1 2 2 5 6 8 8 9 10 9 11 13 14 15 14 15 15 17 20 18 18 15 20 27 31 22 19 21 23 26 28 29 30 30 30
2 1 2 3 3 4 5 8 9 9 8 9 8 10 11 11 11 11 11 12 14 12 3 7 17 16 9 14 13 21 23 22 25 28 29 29 29 28
2 3 3 4 6 6 7 7 8 9 9 10 10 9 9 8 7 8 9 12 14 17 19 14 16 20 13 17 22 22 27 28 25 28 26 26 24 22
3 3 4 7 7 6 5 5 7 9 8 8 9 9 9 9 9 10 12 15 17 25 29 21 15 16 19 23 20 25 26 28 27 28 24 23 23 23
5 4 7 6 5 4 4 6 7 6 8 8 9 11 11 12 14 13 15 17 19 24 24 20 21 24 22 23 25 31 28 26 29 25 21 22 23 23
4 5 5 4 4 5 5 6 6 6 7 9 11 13 14 12 13 13 15 16 18 19 15 21 20 20 25 25 26 29 28 18 27 29 27 28 25 24
5 5 3 3 4 4 5 6 7 7 7 9 11 13 13 13 14 13 14 16 17 22 25 22 18 21 26 29 30 28 27 27 27 30 28 29 28 27
4 4 4 4 5 6 7 7 7 8 8 10 12 13 14 14 14 14 15 16 20 20 22 25 24 25 23 22 26 30 28 28 28 27 26 25 28 25
4 4 5 6 6 7 8 9 10 10 11 10 12 13 14 14 15 16 17 18 21 21 22 24 22 20 10 11 21 19 26 27 29 27 23 23 26 30
4 5 6 7 8 9 10 11 12 12 12 12 13 14 15 16 16 16 17 19 22 24 24 23 21 20 16 15 20 33 25 26 23 27 28 26 28 32
5 7 7 9 9 10 11 12 13 14 14 15 15 15 15 15 17 18 19 23 26 24 23 23 24 26 29 28 17 24 25 24 26 28 29 24 22 22
8 8 9 9 10 11 12 13 14 15 15 15 15 16 16 17 18 19 21 22 24 24 26 29 29 23 23 22 20 25 30 29 28 28 27 30 24 6
9 10 10 11 11 12 13 14 15 16 17 17 17 18 17 18 18 20 23 24 26 27 27 26 26 26 27 22 24 26 28 30 28 27 26 24 28 32

GFSNE_925_spd_063.txt.gz
Wind_Speed
24 22 22 20 20 19 15 9 9 3 4 6 5 13 14 16 16 16 16 16 20 17 19 20 19 21 22 22 22 22 22 22 22 22 23 23 24 25
21 23 21 17 15 12 11 13 14 10 3 9 9 10 12 14 13 14 17 18 16 17 19 19 20 22 23 23 23 21 21 22 23 23 23 24 24 24
20 19 16 14 14 11 13 13 10 7 6 6 8 11 11 13 15 14 13 15 21 18 19 19 22 23 23 23 23 22 22 22 23 23 24 24 24 24
13 14 16 15 16 15 11 9 8 7 6 5 7 8 8 10 10 12 13 16 16 17 18 21 22 22 22 24 23 22 22 22 23 24 25 25 25 26
14 16 18 17 16 13 11 10 8 6 4 5 3 3 5 8 10 9 11 15 16 17 18 19 20 20 21 22 23 23 24 24 25 25 26 26 27 28
18 19 18 16 15 12 10 8 7 7 5 5 4 5 8 6 8 11 12 11 16 17 17 20 19 19 20 22 23 24 23 23 23 23 23 24 26 26
18 14 12 11 10 8 7 7 6 6 5 5 7 8 8 8 8 8 12 13 16 19 19 15 14 19 23 22 23 22 21 20 22 23 24 25 27 28
17 14 12 11 8 7 5 4 3 4 6 8 6 7 8 8 8 9 8 11 11 7 11 24 19 22 24 24 23 22 23 23 24 25 26 27 27 27
13 11 8 7 5 4 2 1 3 4 5 6 8 8 10 8 8 12 11 12 16 20 19 25 22 23 25 24 24 25 25 26 26 25 24 25 25 26
7 7 5 4 3 2 2 2 3 4 5 5 7 10 10 10 9 10 14 16 19 19 17 19 20 23 27 26 27 27 25 23 23 23 24 25 26 27
6 6 5 5 5 5 5 5 6 5 6 8 10 11 11 11 11 14 14 12 14 16 18 17 12 20 27 31 21 16 18 21 24 26 26 26 27 29
4 4 6 5 4 5 5 7 5 6 6 8 8 7 9 10 10 12 12 12 11 10 2 6 12 14 9 16 11 21 27 23 23 25 27 26 27 27
4 4 4 5 6 7 6 6 5 6 8 7 8 8 8 8 8 8 9 12 14 16 18 16 12 17 13 18 17 21 26 26 26 26 27 25 22 21
5 5 4 7 7 6 4 4 5 7 6 7 7 8 8 9 9 9 12 15 18 24 26 21 17 18 19 24 22 25 29 31 27 25 26 24 23 22
5 5 7 7 5 4 4 6 6 4 6 7 7 8 9 11 12 12 12 14 17 21 23 24 25 26 24 24 26 32 28 30 34 25 21 25 26 27
8 7 8 7 6 6 6 5 5 6 6 7 9 11 12 11 12 12 14 14 17 20 19 19 21 22 27 28 28 31 30 21 28 32 31 31 29 28
10 7 6 6 6 6 6 7 7 7 7 8 10 11 12 12 13 13 14 17 18 20 24 21 19 21 26 31 31 31 29 28 29 29 29 30 27 27
6 6 6 6 7 7 8 9 9 9 9 10 11 12 13 14 15 15 16 18 18 20 22 23 23 23 22 24 27 34 26 26 28 27 27 25 30 27
6 6 6 6 7 8 9 10 10 10 12 13 13 15 14 15 15 16 16 18 19 21 22 23 22 18 10 11 21 19 28 31 30 29 25 24 27 31
7 7 7 7 8 9 10 11 12 13 12 13 14 16 17 17 17 17 18 19 20 23 24 23 20 20 17 14 24 33 27 27 26 27 27 27 30 33
8 9 9 9 10 10 12 12 13 15 15 17 19 18 17 18 19 19 20 22 23 22 23 24 24 26 32 34 18 25 29 25 25 29 30 26 24 25
10 11 11 11 11 12 12 14 15 15 16 17 17 19 20 20 21 21 21 21 22 23 26 29 30 29 24 21 24 30 31 28 29 30 30 30 27 6
12 12 13 14 13 13 13 16 17 19 18 19 20 21 21 21 21 23 24 24 25 26 27 29 29 22 25 25 29 29 28 27 28 28 28 26 29 33

GFSNE_925_spd_066.txt.gz
Wind_Speed
34 30 26 24 27 25 22 22 9 4 7 12 12 23 24 20 23 24 24 20 20 19 18 16 16 17 16 18 17 20 20 19 19 18 19 20 21 21
21 21 20 19 19 18 16 15 14 9 2 6 9 17 22 22 21 21 21 19 19 19 16 15 16 17 17 19 20 20 20 19 19 19 20 21 21 21
13 14 14 13 12 11 9 10 10 8 6 5 10 14 16 16 15 16 17 17 17 13 13 15 16 16 18 19 19 19 20 20 19 19 20 20 21 21
8 6 6 7 7 6 8 10 9 12 4 7 11 11 10 12 14 14 12 12 14 11 12 15 16 17 17 18 18 18 18 19 19 20 21 21 22 23
5 9 5 8 11 12 10 10 10 4 5 8 6 8 9 7 6 8 6 7 10 11 11 14 14 16 17 17 17 18 19 19 20 20 21 22 23 24
11 15 10 9 10 10 9 8 9 10 8 8 6 6 4 3 6 5 6 7 10 11 14 16 15 14 13 15 19 19 19 19 19 20 20 21 22 23
16 15 11 9 8 7 5 5 6 7 6 5 3 2 1 3 6 2 4 7 12 17 13 8 13 17 19 20 20 19 18 18 19 20 22 23 25 26
15 13 14 10 10 8 6 4 5 3 3 2 1 2 2 4 2 1 3 7 3 1 14 24 18 21 22 21 20 18 19 20 21 22 23 24 24 25
13 11 9 6 4 4 4 3 2 1 1 2 2 2 4 4 6 9 10 8 12 17 18 23 19 25 23 23 21 21 21 21 21 22 22 22 23 24
9 8 6 5 4 3 3 1 2 3 3 2 4 4 5 5 4 4 7 10 16 18 12 13 17 26 23 28 28 16 14 14 17 19 21 21 22 24
7 5 4 4 5 5 4 4 4 2 2 4 5 6 6 7 7 9 11 12 12 8 16 11 8 20 30 22 12 9 11 17 21 20 21 21 23 24
6 5 5 6 5 6 6 5 5 3 4 7 6 5 6 7 7 9 10 9 9 8 3 11 12 12 10 10 8 20 22 27 20 22 22 22 22 23
5 5 5 6 7 7 5 3 4 6 7 8 8 7 6 5 5 5 7 8 10 13 15 13 11 20 10 14 20 23 25 29 34 27 24 21 19 19
5 3 4 8 7 5 3 3 5 6 6 6 7 7 6 8 8 9 11 13 16 20 23 21 18 19 20 23 22 22 29 31 27 32 23 22 22 21
6 6 6 6 5 3 2 6 5 4 6 7 7 7 7 9 11 12 11 12 15 17 19 19 21 24 25 23 26 30 28 27 30 19 29 34 33 31
9 7 6 5 4 5 5 5 6 6 8 9 9 10 11 9 10 10 12 13 17 20 19 15 18 20 24 26 29 31 26 17 31 35 35 37 36 32
9 5 6 5 6 5 5 6 6 7 8 9 9 10 11 11 12 13 14 16 16 18 21 19 20 21 24 29 29 29 28 29 31 33 29 28 30 28
7 5 6 6 6 7 8 9 9 8 8 9 12 12 13 14 16 16 16 16 17 18 20 21 24 22 21 22 24 32 27 28 29 27 27 25 28 28
5 6 7 8 8 9 9 9 10 10 11 12 13 14 15 16 15 18 18 18 17 18 20 23 21 17 9 10 23 20 27 30 31 29 26 25 28 31
8 9 10 10 10 10 11 10 13 13 13 14 15 16 17 17 16 16 17 17 18 20 21 19 19 18 17 14 23 34 29 31 28 29 30 28 32 35
11 11 12 13 13 11 12 12 14 16 15 16 17 18 18 19 20 20 19 19 20 19 20 22 26 25 28 31 20 26 27 27 29 32 33 26 24 28
14 14 15 16 15 14 14 14 16 16 17 18 19 19 20 20 21 22 21 20 20 20 25 30 33 29 25 23 24 28 32 32 31 32 31 31 26 8
17 18 18 18 18 17 16 16 17 18 19 19 21 21 22 23 23 24 24 23 23 23 24 27 27 26 27 25 27 30 30 29 28 27 30 30 29 31

GFSNE_925_spd_069.txt.gz
Wind_Speed
22 24 23 26 27 28 23 22 20 5 8 15 12 24 24 25 23 22 24 24 19 17 17 17 18 16 15 14 15 15 15 17 17 16 15 15 16 17
18 17 16 13 14 15 16 16 15 5 2 12 19 13 25 24 21 21 21 20 19 17 18 16 13 14 14 15 16 16 16 17 16 16 16 16 16 16
9 9 8 7 7 7 7 8 6 6 4 4 9 14 16 15 21 15 18 17 18 18 14 12 12 13 14 15 15 15 16 16 16 16 16 16 16 17
3 2 2 1 1 1 4 1 3 3 4 3 7 11 9 14 13 15 15 14 13 10 10 10 12 13 13 12 13 14 14 15 15 16 16 17 17 18
4 5 5 4 4 5 10 4 2 1 4 6 5 7 7 9 11 10 9 9 7 6 8 9 11 11 13 12 11 12 13 14 15 15 16 18 18 19
12 11 10 9 7 8 10 5 4 4 5 8 5 7 5 5 5 6 7 6 5 7 11 14 13 9 8 10 12 13 13 14 14 15 15 16 17 18
17 17 16 13 11 10 8 7 6 6 4 4 3 2 4 4 6 4 6 5 6 11 7 4 9 12 12 10 11 12 11 12 14 15 17 18 19 21
14 13 12 10 12 11 10 8 5 2 4 1 1 1 2 2 3 4 2 3 3 4 9 19 13 11 11 11 11 11 13 15 15 16 17 19 20 21
11 9 9 9 8 8 5 2 2 2 1 2 3 2 2 1 2 4 5 6 5 11 13 13 10 14 12 13 15 15 14 13 12 12 14 16 19 20
10 9 7 8 7 6 3 1 3 2 2 2 3 3 4 4 5 5 5 7 11 13 7 5 9 15 20 19 7 2 4 7 11 15 17 17 18 19
8 7 5 5 6 5 3 2 2 1 1 1 2 4 5 5 6 8 9 9 4 3 7 4 5 19 18 6 4 1 7 15 16 16 17 19 19 20
3 4 4 4 4 4 5 3 1 2 4 5 4 4 4 5 5 7 7 8 6 3 1 11 4 7 9 7 6 16 22 18 19 20 20 17 17 16
3 3 2 4 6 5 3 2 2 4 4 5 4 4 4 3 2 3 4 6 7 8 9 8 9 13 5 10 18 21 18 27 30 24 19 14 14 14
4 6 7 7 6 5 3 3 4 5 3 3 4 4 4 6 6 8 10 12 13 16 16 13 14 17 15 18 15 21 27 31 25 26 18 21 22 21
4 6 6 6 4 3 1 5 4 4 4 5 6 6 6 9 11 10 10 11 13 14 14 14 16 18 20 19 23 25 22 24 27 15 27 29 29 27
8 9 4 5 4 4 4 4 5 5 6 7 7 8 9 8 9 9 12 13 17 17 14 15 13 16 24 24 26 27 23 15 25 29 31 33 31 29
8 5 3 3 3 4 4 5 5 5 6 7 7 8 10 11 12 12 13 14 16 18 18 18 12 16 23 27 28 26 25 24 27 31 29 30 32 30
7 4 5 5 6 6 7 8 8 6 6 9 11 12 13 13 15 15 14 16 16 17 18 18 21 21 23 22 23 29 22 26 32 28 26 24 28 29
7 7 8 8 8 9 9 9 9 8 11 11 12 13 14 14 14 17 16 16 16 17 18 20 22 18 9 10 22 19 24 27 29 27 25 25 27 33
8 10 11 11 11 11 11 10 11 12 12 13 14 14 15 15 16 17 18 18 18 19 20 18 19 22 18 13 21 34 29 27 25 28 28 29 31 35
11 12 12 12 13 14 12 13 14 15 14 14 16 17 16 16 19 20 20 17 19 18 19 21 25 21 25 28 19 25 28 27 27 30 33 28 28 29
16 15 14 14 15 15 14 15 16 16 16 17 18 18 20 20 22 22 21 20 20 20 24 29 29 26 23 19 22 26 29 26 30 30 30 31 30 10
16 16 17 17 17 17 18 17 17 18 18 17 18 21 21 22 23 23 23 22 22 23 23 25 24 22 23 23 26 29 30 27 30 28 28 29 28 29

GFSNE_925_spd_072.txt.gz
Wind_Speed
12 12 13 13 15 19 20 17 9 3 4 7 8 17 19 21 25 26 25 23 17 17 17 17 14 15 17 17 15 13 14 14 14 14 13 13 14 15
9 9 11 10 10 10 11 13 13 5 3 10 13 10 21 23 21 21 20 17 18 17 15 13 14 16 14 14 14 14 14 15 14 14 14 14 15 15
6 6 5 4 4 4 4 3 3 5 4 3 8 14 13 21 19 17 14 15 16 13 13 13 14 13 13 13 13 14 14 13 13 14 13 13 15 15
4 3 5 4 5 6 5 3 1 3 3 2 3 5 8 11 13 13 12 9 11 12 10 11 10 12 12 12 12 12 12 13 13 13 14 15 15 16
6 6 7 6 7 7 5 5 4 4 2 4 4 2 2 3 7 8 8 7 7 7 8 8 10 10 11 12 12 12 11 12 13 14 14 15 16 17
13 13 12 10 9 9 8 7 5 5 9 10 6 3 2 2 2 2 4 6 6 6 7 11 14 13 10 9 10 13 13 13 13 14 14 15 15 16
16 17 17 14 12 9 7 7 6 9 9 8 4 1 2 1 2 2 3 2 4 8 12 9 6 10 13 13 12 12 12 10 11 14 15 16 17 18
13 12 10 9 10 10 8 8 7 5 4 4 3 1 1 1 1 2 1 2 3 4 6 14 14 11 7 9 9 10 10 12 13 13 14 15 16 18
12 12 11 10 9 7 6 4 4 4 4 1 0 1 1 1 2 2 4 5 5 7 11 12 6 8 5 9 12 13 12 11 9 8 10 13 16 17
10 9 8 9 9 7 4 3 4 3 3 4 3 2 2 3 4 5 4 5 9 11 5 5 7 11 13 11 5 1 1 3 8 12 14 14 16 18
8 9 6 5 6 7 7 5 3 2 2 3 2 2 4 4 6 6 6 5 4 2 2 3 6 16 16 5 4 6 5 13 13 13 16 17 18 18
3 3 4 6 6 6 7 6 3 3 4 4 3 3 4 4 5 6 6 5 2 3 2 8 4 9 9 7 6 12 18 10 17 17 19 17 16 16
2 3 2 5 7 5 4 2 3 4 5 6 3 2 2 1 1 1 2 4 4 7 7 7 6 11 5 10 17 19 13 23 25 21 15 11 13 14
3 5 5 5 5 3 3 2 3 5 3 3 3 3 2 4 5 7 9 11 12 15 15 15 10 10 13 16 14 17 27 28 20 22 11 16 18 19
5 7 7 5 4 2 1 4 3 4 4 5 5 5 5 8 10 9 9 10 12 13 13 15 17 19 20 18 20 22 21 19 25 13 24 23 26 26
6 8 4 4 3 3 3 4 4 4 5 5 5 6 7 7 9 9 12 13 15 14 11 13 16 18 22 23 24 27 22 15 21 28 26 28 30 28
8 7 3 3 3 3 4 5 5 5 5 6 6 8 11 12 13 12 13 14 15 16 16 15 14 15 19 23 25 26 24 21 21 26 28 28 29 28
9 7 5 4 5 6 6 7 7 6 6 8 10 11 12 14 15 15 14 16 18 20 20 18 16 19 18 17 21 27 21 22 26 30 30 26 26 29
10 9 7 8 9 8 9 8 9 8 9 10 11 13 13 14 14 17 17 17 18 22 24 21 20 17 7 9 17 19 25 23 27 28 25 25 27 31
10 11 12 12 11 11 11 10 10 11 12 12 13 13 14 16 17 17 19 19 20 23 24 23 21 20 17 11 18 31 26 27 25 28 29 31 30 30
13 13 12 12 13 13 13 12 13 14 15 14 15 17 17 17 19 20 21 18 18 19 19 22 26 19 22 25 19 26 29 23 24 29 30 26 27 27
16 16 15 14 14 15 16 15 15 16 17 18 19 18 18 19 21 21 21 21 20 21 24 29 29 26 24 18 21 24 28 28 28 30 28 30 29 9
17 16 16 16 16 17 17 18 18 20 20 19 19 18 19 21 21 22 22 22 22 22 22 24 24 21 22 21 24 26 27 30 28 29 27 29 30 32

GFSNE_925_spd_075.txt.gz
Wind_Speed
9 9 6 5 6 8 8 9 6 4 3 3 4 7 11 14 16 18 21 22 22 18 18 19 19 18 16 14 17 16 14 13 13 14 14 14 13 13
4 4 3 3 4 6 6 6 5 2 2 2 2 8 8 8 12 17 21 18 15 14 16 16 18 17 16 14 12 14 13 13 14 14 14 14 13 13
2 1 2 2 2 3 2 1 1 1 1 3 4 6 7 10 12 12 14 16 16 14 14 11 13 14 12 12 12 13 12 14 14 13 13 13 13 13
5 3 5 4 5 5 5 6 5 4 1 0 3 2 2 6 11 9 8 10 13 12 11 12 13 11 11 12 12 11 11 12 13 12 12 13 13 13
9 9 9 7 8 7 7 9 8 6 4 2 2 2 2 2 4 3 4 8 6 5 5 7 9 10 9 10 12 11 11 11 11 12 13 13 13 14
16 15 13 10 9 8 9 10 9 9 9 8 6 3 2 2 3 2 1 2 3 4 7 8 10 12 12 10 9 10 11 12 12 13 12 12 13 14
17 17 17 15 12 10 10 11 10 9 9 7 4 2 2 2 2 1 1 0 3 6 9 11 10 9 11 12 12 13 12 12 10 10 11 13 14 15
13 10 9 8 9 10 9 10 10 10 7 5 4 3 3 3 2 1 1 1 3 3 7 11 13 13 8 7 9 11 10 10 10 11 11 12 13 14
12 10 11 11 9 8 6 6 7 8 6 4 2 3 3 2 1 2 3 3 4 7 10 10 6 6 4 6 11 14 13 10 8 7 8 11 13 15
10 9 10 10 10 8 6 5 6 6 5 4 3 3 3 4 5 5 6 7 9 11 6 4 5 8 8 11 7 1 4 5 6 9 11 13 14 16
8 9 9 6 7 7 7 5 3 2 2 2 3 2 2 3 6 6 6 6 4 3 3 4 4 12 13 7 7 9 5 5 14 12 12 14 17 18
5 4 4 6 7 6 7 6 3 3 5 4 4 4 4 4 6 6 8 7 4 4 2 4 6 9 8 5 3 8 11 14 9 16 16 17 16 16
4 5 4 5 6 5 4 4 5 5 6 6 4 3 2 1 1 2 3 4 6 8 9 8 6 9 7 8 17 17 12 14 23 20 14 14 12 13
3 5 6 5 5 3 3 1 3 5 4 3 3 2 1 2 4 6 7 9 11 14 15 16 11 11 14 15 13 13 24 25 16 18 10 8 15 16
5 6 8 5 4 3 2 3 3 4 3 3 3 3 4 7 9 7 7 8 10 12 13 14 17 19 20 18 20 22 19 15 26 12 11 23 21 21
5 6 6 5 4 4 4 5 5 5 5 5 5 7 7 7 9 10 12 12 14 13 10 11 14 17 23 25 23 26 21 14 20 25 23 24 25 26
6 8 5 4 5 5 5 6 6 6 6 6 8 9 10 12 12 10 11 13 14 16 18 15 12 16 20 23 24 25 25 23 24 23 24 28 30 28
8 8 7 7 8 8 8 9 9 8 8 10 11 12 13 14 14 13 12 14 15 17 19 18 16 16 19 20 20 29 23 22 25 26 26 23 29 27
9 10 12 10 11 10 11 12 12 10 10 12 14 14 15 15 13 16 16 16 19 20 21 19 17 15 7 7 15 16 25 27 25 26 28 24 26 33
11 11 12 13 15 16 15 15 14 13 13 15 16 16 17 17 18 18 18 19 21 23 23 21 18 18 15 9 13 24 24 26 26 27 28 28 30 29
16 17 16 15 16 16 16 16 16 16 16 17 18 18 19 20 20 22 21 18 19 18 19 21 24 18 19 22 17 25 26 20 23 28 26 24 24 23
19 18 18 18 18 17 18 17 18 18 19 20 21 21 21 21 21 22 22 21 20 22 25 28 26 22 21 15 20 22 26 26 22 24 26 28 26 7
18 18 18 18 18 18 18 19 20 21 21 21 23 24 22 22 21 21 23 22 22 22 23 24 24 19 21 20 22 24 27 28 26 26 29 27 26 28

GFSNE_925_spd_078.txt.gz
Wind_Speed
8 8 6 8 8 8 8 8 2 2 1 3 3 7 9 9 8 9 12 12 15 15 15 13 9 12 13 11 10 11 16 19 15 13 14 13 12 13
2 3 3 2 1 2 3 2 4 3 2 1 2 7 8 5 4 2 4 7 11 10 10 11 14 15 21 21 16 10 8 9 11 13 13 13 13 13
3 2 2 2 2 1 1 0 1 0 2 0 3 6 5 2 2 3 6 8 6 8 11 13 14 9 10 12 12 8 8 10 12 12 12 12 12 12
7 6 6 5 6 6 5 4 3 2 1 3 3 6 4 3 1 3 5 7 10 11 12 12 12 13 14 11 7 7 8 10 11 11 11 10 11 11
10 11 10 8 10 9 8 7 6 5 4 3 3 4 4 5 3 1 2 5 5 4 5 4 4 5 6 6 7 8 10 10 9 6 9 11 10 10
16 15 13 11 11 10 9 8 6 6 6 6 5 4 6 6 4 3 2 2 2 1 2 4 6 9 11 10 8 9 10 9 9 9 11 11 8 9
16 16 15 15 13 11 9 8 6 6 7 8 7 4 4 4 4 3 1 2 1 2 5 7 10 12 11 11 12 11 10 10 9 9 9 9 10 11
13 10 9 8 9 9 9 9 9 7 7 7 6 4 4 4 3 2 3 2 2 2 8 10 10 10 10 9 9 9 9 9 8 9 9 9 10 10
11 9 9 9 7 5 5 3 5 7 7 6 5 4 3 3 2 3 3 4 4 8 10 8 6 7 5 5 7 9 11 10 9 7 7 7 10 12
9 7 8 10 9 6 5 4 5 7 7 6 6 5 5 5 4 3 3 5 8 6 4 3 6 9 8 9 10 5 1 5 6 7 9 10 11 13
7 6 7 6 7 5 5 4 3 4 3 2 3 2 2 3 4 3 5 8 3 3 5 5 7 15 12 8 4 5 2 4 5 8 9 12 13 15
4 3 3 5 5 4 6 6 5 3 3 3 2 2 2 1 2 4 5 5 4 3 6 8 8 9 7 2 1 4 10 12 11 11 16 16 15 16
2 3 2 3 4 4 4 5 5 3 4 3 2 2 1 1 2 2 3 3 3 5 7 6 7 10 6 8 13 14 12 10 16 18 12 12 13 10
1 2 3 3 4 2 2 1 2 4 3 3 3 2 1 1 3 4 6 7 8 11 11 11 9 12 15 14 11 11 21 24 14 17 15 8 8 13
4 4 5 3 3 2 1 1 4 5 4 4 4 4 4 6 7 7 8 8 10 11 12 12 15 17 18 18 19 21 16 13 24 7 9 18 17 14
4 4 4 3 3 3 4 5 5 5 5 5 5 7 7 7 9 10 12 12 14 13 10 10 12 14 18 21 24 27 21 13 17 22 22 22 21 20
5 6 5 4 5 5 6 6 7 7 7 7 7 8 9 12 13 12 13 13 15 17 19 14 11 14 18 21 25 25 27 25 25 22 20 24 28 26
8 9 8 7 8 8 8 9 9 9 9 9 10 11 13 13 15 14 13 14 17 19 20 19 17 17 16 17 17 26 24 24 21 19 21 22 27 31
12 12 12 12 12 11 11 12 13 11 10 11 12 13 14 16 15 16 16 17 19 20 21 19 17 14 4 5 14 16 24 24 23 25 27 27 27 34
16 15 15 14 13 14 14 16 15 14 14 14 15 15 16 17 18 17 19 19 21 22 22 20 16 15 13 8 11 22 21 26 27 29 28 27 28 27
19 19 19 18 18 17 17 16 16 15 16 17 19 19 17 17 19 19 20 18 18 17 18 20 22 17 19 20 16 22 26 21 21 26 27 22 22 23
22 22 20 19 19 19 18 18 18 18 19 19 21 22 23 22 21 20 18 19 19 20 23 27 26 22 19 17 19 22 25 25 19 21 25 26 24 8
24 22 21 20 19 19 20 20 20 20 20 21 21 22 22 24 24 23 21 19 20 21 20 22 23 21 23 21 21 23 28 29 23 22 27 23 24 29

GFSNE_925_spd_081.txt.gz
Wind_Speed
7 7 6 5 5 7 6 4 2 2 2 1 1 5 10 9 9 7 5 4 4 3 6 6 9 5 2 3 5 6 8 12 16 17 16 12 13 11
5 5 4 4 3 1 1 2 3 4 2 0 2 7 7 6 5 4 3 4 9 8 6 5 4 6 8 11 14 15 15 11 8 7 7 9 10 10
3 3 2 2 1 0 0 0 1 3 2 1 1 5 4 3 2 1 2 3 3 2 3 5 9 14 16 12 8 6 8 11 10 9 9 9 9 9
7 6 5 4 4 4 4 4 3 3 2 2 1 4 4 3 1 2 2 3 5 8 10 11 12 12 11 11 11 10 7 7 7 7 8 9 9 8
10 9 9 7 8 7 7 7 6 6 4 3 2 2 4 4 3 2 3 3 2 2 3 3 3 2 2 3 4 4 6 8 8 7 6 6 8 7
14 13 11 10 10 9 8 7 6 6 5 4 3 3 3 3 3 3 4 5 4 2 1 1 3 5 6 8 8 9 12 11 8 8 9 9 9 8
16 15 15 13 11 9 8 6 5 6 4 3 3 2 2 3 3 3 3 3 3 3 4 5 6 9 10 12 13 14 13 11 10 10 9 8 8 8
13 11 10 8 11 11 10 9 9 6 4 2 2 2 2 2 2 2 3 3 2 3 8 7 9 7 8 8 8 8 8 9 9 9 9 9 9 8
11 9 10 9 6 4 3 3 6 8 5 4 3 2 2 2 1 2 3 3 3 6 8 4 6 5 4 3 5 6 8 9 9 9 9 8 8 8
9 8 9 7 6 4 3 4 6 6 5 5 5 4 4 3 2 2 2 4 4 3 4 2 6 5 7 7 8 6 2 4 4 5 9 9 9 10
9 7 7 6 4 2 3 5 5 3 2 1 2 1 0 2 2 1 2 3 1 1 4 2 4 8 6 3 3 6 6 3 4 6 6 8 11 13
6 6 4 2 3 1 4 5 5 2 1 1 1 1 1 1 1 2 2 1 1 1 2 5 4 6 4 2 1 4 7 10 11 12 13 17 18 14
6 4 5 3 2 3 3 4 2 2 0 1 2 1 1 0 0 2 4 3 2 3 2 6 4 7 4 6 9 9 12 8 12 16 18 15 15 12
5 4 3 2 1 3 2 3 4 2 1 1 0 1 1 2 3 4 5 7 6 8 9 8 6 6 9 13 10 7 13 17 16 12 17 15 11 12
3 3 2 2 4 4 5 4 6 5 3 3 3 3 3 4 6 5 7 8 10 11 11 12 13 12 12 13 16 17 15 9 21 15 7 12 15 15
5 4 3 4 5 5 6 8 8 7 6 6 5 5 5 4 6 7 8 9 10 9 8 9 11 13 15 16 18 21 17 12 11 17 19 19 16 13
6 5 4 6 7 8 8 8 8 8 8 9 8 8 6 7 8 8 9 9 10 11 11 13 11 14 17 21 21 22 20 18 17 16 15 19 18 18
9 8 8 8 9 9 9 9 10 10 11 11 11 10 9 9 9 9 10 9 12 13 13 12 15 14 11 15 16 22 16 16 15 14 12 15 22 20
14 14 12 11 11 11 12 12 13 12 12 13 13 13 12 11 11 11 12 12 14 14 13 13 13 8 8 8 11 15 18 16 17 18 17 18 22 28
19 18 17 14 13 13 13 14 15 14 15 16 16 17 15 12 12 12 13 13 15 15 16 13 12 12 9 8 10 18 20 24 21 22 20 18 21 25
22 21 19 18 17 17 17 17 16 16 16 17 18 18 18 17 15 14 14 16 16 16 17 17 15 13 16 16 13 23 25 20 19 22 21 18 19 20
23 23 21 20 19 19 18 18 19 18 18 18 19 19 19 19 18 17 16 16 15 15 18 21 18 15 11 12 18 21 23 20 15 19 23 25 22 8
27 25 24 22 21 20 19 19 19 20 19 19 20 20 19 20 20 17 17 17 17 17 16 18 16 15 16 17 20 21 23 25 21 20 25 22 22 27

GFSNE_925_spd_084.txt.gz
Wind_Speed
8 5 5 5 6 6 7 8 5 3 3 2 1 4 8 9 9 8 8 14 5 5 2 1 5 8 8 6 8 8 9 7 8 9 10 10 13 14
5 3 3 5 4 3 4 4 5 6 3 1 2 4 6 6 5 5 4 4 8 10 8 1 1 0 2 3 5 7 9 10 10 9 7 7 7 8
3 4 3 3 3 2 3 2 2 2 3 2 1 4 4 5 4 2 2 2 1 1 3 3 4 4 4 4 5 4 3 5 7 9 8 7 7 7
4 5 5 4 4 4 3 3 2 1 2 2 0 3 4 4 3 3 3 3 5 6 8 8 7 6 6 6 7 7 7 6 5 4 3 4 6 7
6 6 5 5 6 5 4 3 3 3 2 2 3 2 2 2 3 4 4 4 3 4 4 4 3 3 3 2 0 1 2 3 4 4 4 4 5 6
8 7 7 7 6 6 5 4 4 3 3 4 3 2 0 1 2 3 2 4 3 4 5 5 4 4 4 5 6 7 8 7 4 5 7 7 8 9
10 10 9 8 7 5 4 4 3 4 3 3 3 1 1 1 1 2 2 3 2 4 4 4 4 5 5 7 9 11 11 10 9 8 7 7 8 8
12 11 10 10 9 8 9 9 6 4 4 3 2 1 1 0 1 2 3 4 2 4 6 6 6 4 4 3 7 8 7 6 6 6 7 8 9 9
10 8 6 5 3 2 3 5 8 6 5 3 2 1 1 1 0 1 2 3 4 5 6 4 4 4 3 3 5 5 5 6 7 6 8 9 10 9
6 6 4 3 2 2 3 5 5 5 4 5 4 2 2 1 0 0 2 3 3 2 4 3 4 4 5 5 8 6 4 3 5 6 7 8 10 10
5 4 3 3 2 3 3 5 4 3 2 2 3 2 1 0 3 1 1 3 2 1 3 3 4 7 6 4 3 3 7 7 6 6 8 8 9 11
4 4 4 2 3 1 3 4 4 3 2 1 1 1 2 1 3 1 2 2 2 2 1 4 4 5 4 2 2 3 6 9 10 11 12 13 15 14
5 6 6 4 3 4 4 3 3 4 2 2 2 2 2 2 2 1 0 1 3 4 2 4 3 5 3 6 8 8 9 10 9 11 13 16 18 17
7 6 5 7 5 5 4 4 4 3 3 3 3 3 4 4 4 3 4 5 5 7 8 6 4 5 7 10 8 5 9 12 15 16 13 14 17 15
6 7 7 6 7 6 7 6 7 5 5 5 5 5 4 5 7 6 6 7 8 10 10 10 11 11 10 11 12 13 13 8 18 17 15 11 10 13
9 7 7 6 8 8 7 8 8 7 7 7 6 5 5 5 5 6 7 7 9 8 8 9 11 11 13 15 16 18 16 10 8 14 15 17 16 16
9 7 7 7 8 8 8 9 9 8 8 8 8 7 7 7 8 8 8 8 10 9 8 7 8 11 15 17 18 19 18 16 16 15 13 17 17 15
11 9 10 10 10 10 10 10 10 10 10 9 9 9 9 9 9 9 10 10 11 10 10 9 8 9 10 14 19 20 15 14 13 12 13 17 21 17
15 13 12 12 11 11 11 10 10 9 11 12 11 11 11 10 10 11 11 11 12 12 12 10 9 9 9 8 12 15 16 13 12 15 16 18 22 24
20 17 15 14 14 13 13 12 11 11 12 13 12 12 12 12 12 12 12 12 12 13 14 12 12 12 13 12 12 17 14 18 17 19 21 19 22 25
22 21 22 20 19 17 16 15 15 15 14 14 13 13 13 13 14 14 14 14 14 15 16 15 13 12 15 14 13 20 18 17 19 22 19 17 19 21
22 25 26 25 24 22 20 18 17 16 17 17 16 15 14 14 15 15 15 15 15 15 16 17 15 13 13 15 19 20 21 16 16 20 23 24 20 8
27 28 28 27 26 25 23 22 21 20 19 19 19 17 16 15 15 15 15 16 16 16 16 17 15 14 16 17 20 20 21 21 18 19 20 20 25 30

GFSNE_925_spd_090.txt.gz
Wind_Speed
9 11 11 11 11 10 9 9 5 3 3 3 3 2 4 4 5 4 3 7 6 4 4 4 7 10 13 16 21 19 16 12 9 5 6 8 8 8
8 7 8 8 7 6 7 7 9 8 3 2 2 1 2 3 2 2 1 1 2 6 6 6 5 6 6 5 4 3 2 2 3 3 2 3 4 5
8 7 8 8 6 5 6 7 8 9 4 3 4 2 1 2 2 2 1 1 1 2 1 2 3 3 4 3 2 2 2 3 4 4 2 2 3 3
7 7 7 7 8 5 6 7 7 7 6 5 4 3 2 2 3 3 3 2 3 4 6 5 4 4 1 1 1 1 2 2 2 2 4 3 1 2
5 4 4 6 7 7 7 6 6 5 6 6 5 4 2 3 4 5 5 6 6 6 6 6 5 4 7 6 5 4 3 3 2 3 4 5 5 5
7 9 7 7 7 7 7 6 5 5 6 8 7 4 3 3 3 4 5 3 1 2 4 6 5 5 2 1 2 2 3 3 3 2 2 3 5 5
7 7 7 7 8 7 8 7 6 7 8 8 6 5 4 4 4 2 3 2 2 4 2 2 4 1 0 3 3 4 5 7 7 7 6 4 3 2
9 9 11 10 10 7 7 7 7 7 8 7 5 4 5 4 3 1 2 1 1 3 7 2 4 2 2 5 4 3 3 3 3 3 3 3 3 4
11 10 8 7 6 7 8 8 6 6 7 5 7 6 6 3 2 3 2 2 1 5 6 4 4 3 3 4 5 5 3 2 3 4 4 6 5 5
8 6 5 6 6 7 5 7 7 7 7 6 6 5 4 4 2 3 2 1 0 1 5 1 4 3 4 3 4 6 1 2 4 6 6 5 7 5
8 8 6 5 5 8 8 9 5 6 6 5 4 4 4 4 3 4 3 2 2 2 3 2 3 8 5 4 4 1 1 2 4 6 6 4 5 6
8 8 8 5 5 8 8 8 7 6 5 5 5 4 4 4 5 3 2 4 1 1 1 3 3 6 4 1 3 3 5 4 5 5 7 7 7 11
8 7 8 7 5 6 7 7 6 7 6 6 5 4 3 2 3 2 1 3 5 2 1 4 2 4 3 6 9 6 6 7 8 8 11 11 10 11
9 8 7 7 6 6 8 6 7 7 6 6 6 6 5 6 6 6 5 4 5 6 8 7 5 3 4 7 7 6 11 12 14 14 10 11 11 11
8 8 7 7 7 7 8 7 6 9 7 7 8 7 9 10 10 9 6 6 6 6 7 9 11 10 11 11 12 16 16 6 17 12 8 7 12 14
9 9 9 8 8 8 8 10 11 11 10 9 8 7 9 10 10 7 5 6 8 9 7 8 10 11 15 17 18 20 16 11 9 16 17 17 16 15
12 10 11 13 13 13 13 13 13 14 14 13 12 11 12 11 9 7 9 9 10 11 11 10 10 12 14 16 20 21 20 22 21 17 15 19 20 18
15 16 16 15 15 15 15 15 16 16 17 15 14 15 15 15 14 13 13 13 14 14 13 12 11 12 15 18 21 26 20 19 14 12 13 17 24 24
19 20 20 19 19 18 17 18 19 18 16 17 17 18 17 17 16 17 17 17 18 16 15 12 13 13 8 7 12 13 22 20 17 18 18 19 24 31
24 26 25 22 21 21 21 22 22 20 20 20 20 21 20 20 20 21 21 21 21 20 18 16 16 17 15 12 10 19 15 17 20 24 28 25 24 27
28 29 28 26 25 24 24 24 23 23 23 23 24 23 23 22 23 24 23 20 19 21 22 23 20 15 19 20 17 23 23 16 15 20 26 24 23 23
28 30 30 29 28 29 28 27 26 25 24 24 25 25 24 23 24 25 24 24 25 25 25 23 17 15 17 19 19 24 27 24 20 20 20 22 20 8
32 32 31 31 30 30 30 29 29 29 29 29 28 28 27 26 27 26 25 25 25 23 22 21 19 17 20 20 21 22 24 24 22 22 25 20 19 24

GFSNE_925_spd_093.txt.gz
Wind_Speed
11 11 11 12 11 11 11 12 10 3 3 5 4 2 2 2 3 3 2 1 3 4 4 3 5 7 11 19 26 24 20 17 14 13 8 7 9 8
10 11 10 9 10 10 10 9 9 8 3 4 4 5 1 1 2 2 1 1 2 4 4 4 4 4 7 8 10 10 9 9 6 3 3 3 3 3
10 11 11 10 9 8 9 8 9 9 4 4 7 6 3 2 2 3 2 2 1 1 1 1 1 3 2 4 6 6 6 6 6 5 4 3 3 3
11 10 10 9 9 11 12 10 10 10 9 9 8 6 3 4 4 4 3 2 2 4 3 2 2 1 2 0 2 3 4 4 4 4 5 4 3 2
7 8 8 9 10 10 9 9 10 9 10 8 7 6 4 7 8 6 6 5 6 4 3 4 3 5 8 7 5 5 5 3 3 4 5 6 6 6
7 9 9 8 8 8 8 8 8 9 9 12 9 8 7 8 7 9 9 6 3 2 1 3 2 3 2 2 2 2 3 3 3 2 3 4 5 6
8 7 8 8 8 8 10 10 9 10 11 14 11 9 9 10 8 7 7 6 3 1 2 3 1 1 1 2 2 3 4 5 6 6 5 5 4 3
8 7 8 9 7 7 8 8 9 11 15 10 9 11 9 9 9 7 7 6 3 2 1 3 2 2 1 2 2 2 2 3 4 3 3 3 2 3
10 11 10 7 8 9 8 8 8 9 10 11 12 11 11 10 9 9 7 5 3 0 1 5 2 4 2 1 2 3 2 2 3 3 3 5 4 3
10 9 8 8 7 7 7 8 7 6 6 7 8 8 8 9 7 7 7 6 5 2 0 3 1 2 2 1 1 4 2 1 2 4 4 5 6 7
8 7 7 7 7 7 8 9 8 8 7 7 7 7 7 7 7 8 9 9 3 4 0 0 2 3 2 3 1 2 1 1 2 3 5 5 4 5
10 9 6 7 6 8 9 10 9 8 8 8 8 8 8 7 7 6 6 9 4 3 2 1 1 3 2 3 2 2 3 3 2 2 4 4 5 8
10 10 10 7 6 8 8 10 9 9 9 9 9 9 8 7 7 5 4 5 7 3 3 2 1 1 1 3 5 2 4 4 6 7 7 8 10 10
11 10 10 9 9 8 9 8 8 10 11 11 10 9 9 8 7 5 4 4 4 5 7 5 3 3 2 3 4 4 8 10 11 7 6 8 10 8
10 10 10 10 10 9 10 10 10 13 13 12 12 12 11 7 8 8 6 6 6 7 6 7 8 9 9 7 6 11 11 6 14 5 2 5 10 13
10 9 10 12 12 12 12 13 14 14 14 14 13 11 11 12 12 11 10 7 6 7 6 6 7 9 11 13 14 19 16 10 5 8 15 14 12 12
13 13 14 15 14 14 15 16 17 16 16 15 14 14 14 13 12 11 10 8 10 7 7 7 8 10 12 13 16 17 16 16 16 16 12 15 16 15
17 18 18 18 18 18 19 19 19 19 20 19 18 17 17 17 15 13 13 15 15 13 12 9 8 10 13 14 17 21 17 16 10 7 8 14 22 19
22 22 22 21 21 20 20 20 21 20 18 19 20 20 19 19 17 17 18 18 20 19 16 11 11 11 8 4 8 11 15 14 13 14 14 17 24 29
25 27 28 27 25 24 23 23 21 19 20 21 22 22 21 21 21 22 21 21 23 21 19 17 16 17 18 10 7 12 12 16 17 20 23 22 22 25
29 31 31 30 29 27 25 24 23 23 24 24 25 25 24 24 25 25 24 21 20 21 22 23 20 14 16 17 15 17 18 14 14 18 21 19 20 19
29 31 31 31 30 28 27 26 26 26 27 27 27 28 28 27 28 27 25 24 24 25 25 22 16 13 17 20 19 22 23 22 19 18 18 19 19 7
32 32 32 31 30 29 28 28 29 29 29 29 30 29 28 28 28 28 27 26 24 23 22 23 20 18 20 23 22 22 22 24 23 23 24 17 17 22

GFSNE_925_spd_096.txt.gz
Wind_Speed
15 14 14 15 15 15 15 15 11 4 4 9 6 9 3 1 3 3 1 1 2 1 3 4 6 7 12 19 24 23 27 26 22 17 15 11 9 6
13 12 12 12 13 11 10 11 14 11 3 7 7 9 6 3 3 4 3 4 2 2 2 4 5 5 6 11 13 16 16 15 12 10 8 5 4 4
14 12 12 12 12 11 10 9 10 9 4 4 7 9 7 5 4 4 5 5 3 1 1 2 3 5 6 4 4 6 6 8 8 6 4 3 3 3
13 13 13 12 12 12 11 10 10 9 5 7 9 8 6 7 8 6 5 4 4 2 2 1 1 3 3 3 4 4 2 3 4 4 5 6 6 5
11 11 11 12 13 13 13 13 13 11 9 8 8 10 6 9 10 9 7 7 6 4 3 4 4 8 8 6 5 4 4 4 5 6 7 8 7 6
9 8 9 10 11 12 11 10 9 9 11 10 8 8 7 12 11 11 10 7 6 3 3 3 3 4 3 2 2 2 3 4 4 3 4 4 4 6
8 9 9 11 10 10 9 10 10 11 12 15 11 8 9 12 13 13 10 9 5 3 4 4 2 3 3 2 2 3 5 5 5 5 4 3 3 3
8 7 7 6 6 5 7 8 9 11 14 14 11 15 13 14 14 14 12 7 3 4 4 5 3 4 2 0 0 1 1 4 4 4 3 2 2 2
8 8 6 6 7 7 6 6 7 10 12 13 13 15 13 14 14 13 12 8 5 5 4 6 4 5 3 2 0 2 2 2 3 3 3 4 4 3
9 8 7 7 7 6 6 7 5 5 7 10 10 11 9 12 11 10 9 9 8 5 5 4 5 5 4 3 2 2 2 3 3 4 4 5 6 6
9 9 8 8 7 8 7 7 7 7 7 7 8 9 9 8 8 10 12 13 4 5 4 4 5 4 4 5 5 4 3 3 3 3 5 5 5 4
9 8 8 8 7 8 9 10 10 10 9 10 10 10 10 8 8 7 8 14 5 4 6 4 4 2 3 6 6 7 6 6 4 3 3 3 4 6
11 12 9 9 8 8 10 11 10 9 10 10 10 9 10 8 8 7 8 8 8 4 7 4 6 3 2 3 7 7 7 7 7 8 8 9 8 7
13 12 12 12 10 9 9 8 9 10 11 11 11 11 10 9 8 7 5 5 6 6 6 7 3 6 4 2 3 7 7 8 10 10 10 9 8 8
12 12 11 12 11 9 9 8 10 12 12 13 13 12 11 8 9 8 5 5 6 7 9 10 10 10 9 6 3 5 7 5 9 12 6 3 7 10
12 11 11 12 12 11 11 12 13 14 13 14 14 11 11 13 13 11 9 8 8 7 7 7 7 8 8 11 12 16 13 9 4 7 10 16 12 10
14 13 14 14 15 14 14 15 16 15 16 16 15 15 16 15 15 13 12 11 11 5 7 8 8 10 11 12 15 17 15 14 14 11 13 16 12 10
16 18 18 19 19 19 18 18 18 19 20 19 18 18 19 19 18 16 15 16 17 15 12 9 9 9 10 14 19 22 18 15 13 7 8 14 19 13
22 22 24 23 23 22 22 21 23 23 22 21 23 23 22 20 19 20 20 20 21 21 18 13 11 12 6 4 4 10 14 12 11 11 11 14 22 24
24 27 28 28 26 25 24 24 24 23 22 23 24 25 25 24 23 23 23 24 23 22 20 19 19 19 19 9 5 6 7 8 12 17 17 18 22 26
28 30 31 31 30 29 28 27 26 25 25 25 26 27 26 26 27 26 25 23 22 23 23 24 23 16 18 19 14 14 18 14 15 16 17 17 17 15
27 31 31 31 31 31 30 28 28 27 28 27 28 28 28 28 29 28 26 25 26 24 26 22 15 13 18 22 20 18 18 18 15 16 17 19 15 6
29 30 31 31 31 30 29 29 29 29 28 30 30 30 30 30 30 30 29 28 27 25 26 25 21 19 22 23 23 24 23 21 19 20 23 17 19 23

GFSNE_925_spd_099.txt.gz
Wind_Speed
14 14 13 14 14 15 17 16 11 4 4 9 8 12 9 5 6 5 2 0 3 2 1 5 5 6 12 18 23 17 17 21 24 22 23 21 16 10
13 13 13 14 14 14 14 15 16 11 3 8 11 10 10 6 6 4 4 4 3 2 2 2 3 5 7 11 19 21 21 22 21 18 15 11 9 6
13 13 13 13 12 12 13 12 12 10 3 3 7 11 11 8 6 5 5 5 3 2 1 2 3 4 5 6 7 10 11 12 12 11 9 6 4 3
11 12 12 11 11 10 12 12 11 9 5 6 9 12 9 10 7 7 7 6 6 2 2 4 1 3 4 5 3 5 6 6 6 7 9 9 8 8
10 11 10 12 12 12 13 12 11 11 9 9 8 12 7 12 11 9 8 8 8 5 3 2 3 7 5 3 4 7 7 5 6 8 10 10 8 8
10 9 8 10 13 13 14 14 12 12 11 10 8 9 8 10 12 12 11 9 7 5 4 4 3 5 5 3 3 4 4 6 5 5 5 5 5 5
8 9 10 10 12 14 13 13 11 11 12 13 8 7 9 10 15 12 11 9 6 6 6 4 3 4 2 1 1 2 3 3 4 4 3 3 3 3
8 8 8 8 8 9 10 10 10 10 11 14 12 8 12 14 16 15 12 8 4 7 7 6 4 4 3 1 1 1 2 4 4 4 4 3 2 3
8 8 7 6 5 6 6 5 8 9 10 13 14 13 13 15 16 16 15 11 5 6 7 7 5 5 3 3 2 1 2 3 4 4 4 4 5 4
8 7 7 6 5 7 6 5 4 4 8 11 11 9 9 11 13 14 13 11 8 6 7 4 6 6 5 3 2 3 1 4 4 5 5 5 6 6
7 8 8 8 7 7 7 5 4 3 2 3 6 7 8 10 11 12 14 15 4 7 7 5 6 6 6 5 5 4 4 5 4 5 5 5 5 6
8 8 8 8 7 7 8 8 7 6 6 7 8 9 8 8 8 9 12 16 5 4 8 6 7 6 3 6 8 8 7 7 6 5 5 4 5 7
10 11 9 8 7 7 9 10 9 7 7 7 7 8 9 8 8 8 9 10 9 3 7 8 8 6 3 3 8 9 9 9 9 9 9 8 8 7
12 12 11 10 9 8 9 7 9 8 10 10 10 9 10 9 8 7 6 6 7 6 7 9 4 7 5 4 4 8 10 9 10 11 11 11 11 9
12 11 11 11 12 10 9 10 9 13 12 12 13 12 11 8 10 9 7 6 5 5 6 8 8 6 8 7 2 5 4 9 12 12 10 10 10 8
14 12 11 11 13 14 12 10 11 13 13 14 13 11 11 12 12 12 9 7 6 7 6 6 6 5 7 9 11 15 12 8 4 6 10 14 14 15
15 14 11 12 14 14 13 13 14 15 16 14 14 14 14 14 15 14 12 11 10 5 6 7 7 7 9 11 13 16 15 16 15 16 17 19 16 12
15 16 15 17 18 18 18 18 18 18 19 18 17 17 18 17 17 17 16 16 16 15 12 9 9 8 8 11 19 22 18 16 13 12 12 13 16 10
20 20 22 22 23 22 22 21 21 20 20 21 22 21 21 21 19 20 20 19 20 19 19 14 13 13 6 3 4 12 15 11 9 10 11 15 19 19
22 25 26 25 25 24 23 23 22 21 22 22 24 25 24 25 24 24 23 25 24 23 22 21 22 20 18 8 4 5 8 8 12 14 16 18 20 22
24 26 27 28 27 26 25 25 24 24 24 24 25 26 26 26 28 28 27 23 21 23 22 26 26 20 21 19 13 15 20 19 18 18 15 15 18 15
26 28 29 29 29 29 28 28 27 26 26 27 27 28 28 29 30 29 28 25 25 23 27 25 20 17 22 23 20 18 18 18 16 17 18 18 13 5
30 31 29 30 30 29 28 27 27 28 28 28 29 29 30 31 31 31 29 28 26 26 25 22 20 20 23 26 24 23 20 21 20 21 23 21 24 28

GFSNE_925_spd_102.txt.gz
Wind_Speed
9 9 10 8 10 9 11 11 8 5 3 9 9 14 13 11 10 8 4 2 2 3 4 3 3 4 7 15 19 12 6 11 22 25 22 24 21 18
9 9 9 9 10 9 9 11 10 10 4 7 11 10 13 12 10 8 5 4 3 2 3 1 3 5 5 10 19 23 27 27 27 27 25 22 18 14
9 10 10 10 9 9 8 9 10 10 4 3 7 11 13 11 9 7 5 4 4 3 1 2 4 4 4 5 9 14 17 19 20 19 17 15 12 9
8 9 10 8 7 7 8 9 10 10 5 6 7 10 11 12 8 7 7 7 6 3 2 2 1 4 6 3 3 5 9 10 11 14 14 12 12 10
6 6 7 7 7 7 9 9 9 9 7 7 8 12 10 13 12 10 8 8 7 6 4 3 3 5 3 2 7 8 8 9 9 11 15 16 15 14
6 6 5 4 7 10 11 13 13 12 10 10 10 8 9 10 13 11 10 10 8 7 5 5 4 6 3 4 5 6 8 10 10 10 9 9 9 9
5 5 5 6 8 9 10 12 13 11 10 11 8 7 8 8 14 12 12 11 9 8 8 5 5 5 3 2 2 3 5 6 6 7 6 6 6 6
6 5 5 6 6 7 7 9 9 8 9 11 11 7 10 10 13 15 14 8 5 9 9 7 6 5 4 3 2 2 4 5 6 6 5 5 5 6
6 5 5 5 5 5 5 4 4 6 8 8 11 12 11 14 15 17 16 12 7 5 9 7 6 6 5 5 3 2 3 4 5 5 5 6 7 7
6 6 6 5 5 5 5 4 4 3 5 7 8 8 8 8 13 16 15 12 7 7 8 4 8 7 6 6 3 3 4 5 6 6 6 7 8 7
7 6 7 6 6 5 5 4 3 2 1 2 5 5 6 7 12 13 15 14 4 6 8 5 7 7 8 7 7 5 6 6 7 8 6 6 7 8
7 7 8 7 6 5 7 5 4 3 1 3 5 7 7 8 10 10 11 17 6 4 10 8 8 7 4 8 10 9 7 7 6 6 6 6 7 8
8 8 8 6 6 5 8 7 5 4 5 5 4 6 7 7 7 7 9 11 9 2 6 10 8 8 3 3 9 11 11 10 9 9 8 7 7 7
9 7 8 7 7 6 6 8 5 5 7 6 7 7 8 6 7 7 7 7 8 7 5 11 3 9 7 5 4 10 13 12 11 11 11 11 11 11
9 8 7 7 8 8 6 6 5 9 8 9 10 9 8 7 8 8 7 6 5 5 6 8 8 8 9 6 3 6 6 12 13 13 13 13 13 15
13 10 8 7 8 9 9 9 9 9 11 11 10 10 9 10 11 11 10 8 7 7 7 8 8 9 10 11 12 12 11 5 6 8 9 13 14 14
12 11 10 9 10 11 11 10 11 10 13 12 12 11 13 14 14 14 13 11 10 4 6 9 8 8 8 10 10 15 14 15 14 14 16 18 18 18
13 14 14 14 14 13 13 13 12 13 16 16 15 15 16 17 16 16 17 17 15 14 13 9 9 8 7 10 18 21 18 17 14 13 14 14 17 12
17 17 18 18 17 16 16 18 18 17 16 19 20 20 19 19 18 19 20 19 20 19 16 14 14 14 6 2 3 13 17 11 9 12 13 14 13 11
19 21 22 21 19 18 19 21 20 19 18 19 21 22 22 22 23 24 24 24 24 23 21 20 21 21 20 7 3 5 10 12 13 15 16 13 16 19
20 22 23 23 23 22 22 21 20 20 20 21 23 24 24 24 27 27 27 25 23 23 21 25 27 22 23 21 12 13 19 17 16 16 14 14 17 12
22 23 24 24 25 25 25 24 23 22 22 23 24 25 26 26 28 28 27 25 25 24 27 24 20 16 22 24 20 17 15 16 15 16 18 18 13 5
22 24 25 25 25 25 25 25 26 26 26 25 25 25 26 27 28 29 27 27 25 25 24 21 22 20 23 26 23 20 20 22 18 18 22 21 23 25

GFSNE_925_spd_105.txt.gz
Wind_Speed
6 4 5 6 6 6 7 8 5 3 3 7 7 11 14 13 12 11 7 3 3 3 3 3 2 3 5 7 17 6 8 11 13 20 25 24 23 21
3 4 5 6 6 7 8 8 8 9 4 3 9 9 11 13 12 11 9 6 3 3 3 2 3 4 4 7 16 21 11 11 20 26 25 26 27 23
4 5 5 6 7 7 7 8 7 9 6 6 8 10 11 13 12 10 8 6 5 3 1 1 2 4 3 5 8 16 21 27 26 29 27 23 21 17
3 5 5 6 7 7 6 6 7 10 6 6 7 9 11 13 11 9 9 9 7 4 3 2 1 3 7 4 4 6 11 13 16 18 20 18 16 13
2 4 4 4 5 5 6 6 8 8 7 6 8 10 10 14 13 11 10 9 8 6 6 6 2 2 4 3 2 5 9 11 13 17 18 17 15 15
2 3 3 3 3 5 7 8 10 10 10 9 9 8 10 10 14 12 10 11 9 7 6 6 6 5 2 4 6 9 8 9 9 10 11 13 15 15
2 3 3 3 4 5 6 8 9 10 10 11 8 6 8 7 15 13 11 10 10 9 8 7 6 5 2 3 3 5 6 7 8 9 10 10 11 11
1 2 3 4 4 4 6 7 8 7 8 9 11 8 11 11 12 14 13 8 4 11 10 8 7 6 4 3 3 4 6 7 7 7 7 7 8 9
2 3 4 4 3 3 4 4 3 5 8 8 10 12 11 12 12 14 14 11 5 6 11 6 7 6 6 5 3 3 5 6 6 7 7 7 8 9
3 4 5 4 3 4 4 4 4 3 4 7 9 9 10 9 13 14 16 12 8 7 10 4 8 7 7 7 4 3 6 6 7 7 8 10 9 9
3 4 4 4 4 4 4 4 3 2 2 3 5 7 7 7 10 13 15 14 5 7 11 5 7 7 8 8 7 6 5 7 8 8 8 9 10 10
3 4 4 5 4 4 6 5 5 4 2 1 1 3 5 7 9 11 12 16 5 4 11 9 9 8 4 9 11 10 10 7 8 8 8 9 10 11
4 5 5 4 5 5 7 7 5 4 4 3 3 4 6 6 6 7 9 12 10 3 7 13 9 10 4 3 11 14 13 11 11 11 10 10 10 10
6 5 5 7 7 6 7 6 5 6 7 6 5 5 5 5 5 6 8 8 9 7 6 14 5 10 8 5 4 10 14 14 14 14 13 12 12 10
7 5 4 6 7 8 8 7 6 9 8 8 7 7 6 6 6 7 6 6 6 6 8 10 9 8 9 7 4 7 7 14 16 15 15 15 15 16
11 9 7 6 7 8 10 10 10 9 11 9 8 7 7 8 9 8 8 8 6 6 7 8 9 9 10 11 11 10 11 6 10 14 15 16 16 16
12 11 11 9 10 11 11 12 11 10 12 10 9 9 10 11 12 11 10 9 7 5 8 10 9 9 10 10 10 14 14 15 16 13 12 14 15 17
13 14 14 13 13 12 12 12 12 13 14 13 12 12 12 14 13 13 14 14 13 12 11 9 10 8 7 11 18 17 14 14 14 14 15 13 17 15
16 16 16 15 16 14 14 14 15 15 14 15 16 17 17 16 14 16 17 17 16 16 16 14 14 11 6 3 4 12 16 12 11 15 14 13 10 7
17 19 19 18 17 16 16 17 17 17 17 18 18 19 20 20 20 20 21 22 18 17 18 19 20 21 16 7 4 6 10 14 13 12 11 12 14 13
17 18 19 19 19 18 18 18 18 18 18 18 20 21 21 22 24 24 24 22 20 19 18 22 29 23 23 19 12 15 21 18 18 16 11 12 9 7
19 19 19 19 20 20 21 21 21 21 21 22 22 22 23 24 26 26 25 22 22 22 25 23 20 16 23 22 20 17 14 17 18 20 20 20 12 5
14 15 16 16 17 17 17 18 19 21 22 23 24 24 24 25 26 27 26 25 23 22 22 17 18 21 24 25 22 19 17 17 16 19 25 24 24 25

GFSNE_925_spd_108.txt.gz
Wind_Speed
13 10 8 7 7 7 8 8 9 4 5 7 6 6 8 10 11 10 8 6 6 5 6 8 7 6 8 9 15 11 8 10 14 19 15 30 29 26
10 9 7 7 7 7 8 9 10 11 4 3 5 5 8 10 10 11 10 7 4 4 5 6 6 7 8 9 15 12 1 8 12 16 21 26 26 26
8 7 7 6 7 7 7 7 9 9 10 7 9 10 10 10 9 9 8 7 6 3 3 3 5 9 7 8 10 17 14 7 12 20 24 26 30 28
7 6 7 7 7 6 7 7 8 6 6 10 8 8 8 9 9 9 8 9 6 3 1 1 4 8 9 8 9 10 15 23 29 30 28 25 23 20
6 6 7 6 5 5 5 7 7 7 6 6 5 8 8 9 11 9 9 9 9 7 6 3 1 6 10 7 4 5 9 12 16 20 20 18 18 17
7 6 5 5 4 4 5 7 8 9 8 9 6 7 7 7 12 11 9 11 10 8 7 5 5 7 4 3 4 5 5 9 12 12 13 17 18 18
5 5 4 5 5 5 5 7 7 7 8 8 8 7 7 7 13 12 12 10 10 9 6 5 3 3 1 0 1 2 4 6 8 10 11 12 14 14
4 4 4 5 6 5 6 7 7 7 8 7 10 8 11 10 10 13 13 7 5 11 8 6 6 3 3 1 2 3 4 5 6 7 8 9 10 10
5 6 7 8 7 5 5 5 5 6 9 8 9 10 9 12 12 13 15 12 7 6 9 8 6 5 6 3 3 3 4 5 6 6 7 7 9 11
5 7 7 7 6 5 4 4 5 4 4 7 9 9 9 8 11 11 13 13 9 7 9 4 6 5 5 5 3 3 5 5 6 6 6 8 10 9
5 6 7 8 6 6 5 4 3 3 3 4 5 7 8 7 8 8 11 12 5 5 11 4 6 6 6 5 6 5 6 6 7 7 8 10 9 10
4 6 7 7 7 6 5 4 3 4 4 2 1 1 2 5 8 7 8 13 5 4 9 9 8 7 3 8 9 9 9 7 11 9 8 9 10 7
6 6 7 7 6 6 6 5 4 3 4 2 2 2 3 3 4 6 7 10 10 4 6 12 8 9 3 3 9 13 12 9 9 11 11 10 10 10
5 5 6 7 8 7 6 6 5 4 4 4 3 3 3 3 4 6 7 9 10 7 6 15 3 9 7 4 4 11 15 14 13 13 13 12 11 10
7 5 5 6 7 7 8 8 6 6 5 5 5 5 5 6 6 6 6 7 7 8 9 11 10 8 9 4 3 5 7 13 16 16 15 15 15 13
9 8 7 6 6 7 8 9 8 7 7 7 5 5 7 7 8 8 7 7 6 6 8 9 9 9 9 9 8 5 9 5 10 16 15 15 15 15
12 11 9 8 6 7 7 9 9 8 8 8 6 7 7 8 9 10 9 9 6 5 8 10 10 10 11 11 8 12 10 11 13 10 12 12 14 16
12 11 9 9 10 9 9 9 10 10 9 9 8 8 9 10 10 11 11 10 9 9 8 8 8 5 6 10 17 12 11 12 12 13 13 11 13 14
10 9 11 10 10 9 9 10 11 10 12 13 13 13 13 13 12 11 11 12 12 10 10 11 11 8 7 4 4 11 17 11 11 12 13 14 10 8
17 12 11 10 10 10 11 13 14 14 15 16 17 17 18 18 15 15 15 15 13 13 13 15 15 17 14 7 4 6 9 15 12 11 12 13 14 15
17 16 13 12 12 13 13 14 14 15 16 17 18 19 19 19 19 18 18 17 16 15 16 18 24 20 19 17 11 14 19 18 17 16 13 11 8 9
18 17 17 17 16 16 16 16 17 17 18 19 19 19 19 21 21 20 19 18 19 20 21 18 16 17 20 18 18 17 15 15 18 24 24 21 10 6
13 14 14 14 13 13 13 14 15 16 16 17 18 19 20 21 21 21 20 19 20 19 19 17 16 16 19 21 20 18 16 17 14 15 25 27 28 29

GFSNE_925_spd_111.txt.gz
Wind_Speed
12 13 12 9 8 7 8 8 7 2 2 7 4 3 5 8 10 8 9 7 6 6 7 8 9 11 12 14 16 23 20 14 10 17 22 24 30 30
13 12 11 8 6 7 7 8 10 10 3 3 1 2 5 8 10 8 8 6 6 5 6 6 8 11 12 14 16 22 14 6 8 12 18 21 30 33
11 8 8 6 5 7 6 8 10 11 9 11 11 10 9 10 10 8 7 6 6 5 4 5 7 9 13 13 14 18 21 4 8 12 16 20 26 30
9 9 7 8 8 7 7 9 10 10 10 12 5 8 8 7 9 8 7 7 7 5 2 3 6 9 13 14 11 12 19 24 10 14 20 25 29 29
9 7 6 7 6 7 7 7 6 8 8 9 7 8 8 9 8 9 9 9 8 7 6 4 5 8 12 10 8 6 11 18 25 29 28 27 25 25
7 7 8 7 7 8 8 7 7 9 10 10 11 7 8 8 9 11 10 11 11 9 8 7 7 7 8 6 6 5 7 10 14 17 18 22 20 20
6 5 5 7 8 7 5 5 7 7 9 8 9 7 7 8 9 9 12 11 11 11 9 6 3 5 4 4 3 4 5 6 8 12 15 16 17 19
6 5 5 5 6 7 7 8 10 6 8 9 9 8 12 13 11 11 11 8 4 11 11 7 7 5 4 3 2 0 2 4 6 8 9 10 11 12
6 7 7 7 7 5 6 6 7 7 7 8 9 9 10 11 12 12 13 10 5 3 11 6 6 6 6 5 4 2 2 4 4 5 7 8 10 11
6 6 7 6 7 7 5 6 8 6 6 7 10 12 11 11 9 10 11 11 7 6 10 3 6 5 6 4 2 2 2 3 4 5 6 8 9 10
5 4 6 8 9 8 6 8 5 6 6 5 7 9 10 9 8 8 9 11 4 6 10 6 5 6 3 3 3 2 5 5 5 7 8 8 9 9
4 4 8 9 10 8 6 6 7 6 7 4 4 3 3 6 9 8 7 14 4 4 9 10 9 7 2 7 7 6 7 7 8 6 8 9 9 10
5 7 10 10 10 8 8 8 7 5 6 6 4 3 3 2 4 8 9 12 13 4 5 14 9 10 4 3 9 11 11 9 11 10 9 9 10 11
9 10 8 10 12 10 8 8 9 6 7 5 5 5 4 5 5 7 8 10 11 9 6 12 4 10 8 4 3 10 14 12 12 12 12 12 11 13
11 12 12 11 11 10 10 10 8 6 6 6 6 6 7 8 6 5 6 7 7 8 8 9 9 7 9 6 4 6 9 14 16 15 14 15 14 14
16 14 12 9 8 6 8 10 10 8 8 7 6 6 8 7 6 6 6 6 5 5 7 8 9 9 9 10 9 8 11 5 11 17 17 16 17 17
17 15 13 11 8 7 8 9 10 11 11 9 8 9 7 7 8 8 8 7 5 4 6 8 8 9 10 11 11 15 14 14 14 10 15 18 19 19
16 14 14 13 10 9 10 10 11 11 11 10 10 10 10 10 10 10 10 10 9 9 8 8 8 6 6 10 17 17 14 17 15 15 15 14 16 16
15 12 13 13 12 11 11 12 12 12 12 13 13 13 12 12 11 12 12 12 13 13 12 13 12 10 4 3 4 10 19 16 15 15 17 19 16 12
18 16 14 13 13 12 13 13 13 13 14 14 14 15 15 15 14 16 16 16 15 14 14 16 17 17 16 6 4 7 9 17 17 18 17 16 16 16
20 19 17 14 13 14 14 14 14 14 15 15 15 16 17 17 18 18 18 15 15 16 16 18 23 18 18 18 13 15 20 16 17 18 15 15 13 12
18 16 16 17 15 14 13 13 14 14 15 16 17 17 17 18 19 18 18 18 19 20 21 20 15 15 19 17 18 17 16 18 17 21 23 22 10 7
15 15 15 15 15 14 13 13 13 14 14 13 14 16 16 18 19 20 19 20 20 19 20 18 17 19 23 23 20 18 17 17 20 21 25 27 30 30

GFSNE_925_spd_114.txt.gz
Wind_Speed
23 21 16 12 12 10 9 8 5 1 1 2 4 4 4 6 8 8 8 8 7 7 7 7 8 10 13 14 16 18 23 27 24 16 19 24 27 22
17 14 13 12 10 10 9 8 7 7 1 1 2 3 7 8 9 8 8 6 6 8 8 8 7 9 14 18 17 17 23 21 15 12 13 22 26 27
13 13 12 11 9 7 6 8 8 9 9 9 11 10 9 11 11 9 7 7 7 8 7 7 7 9 13 19 17 15 21 14 9 10 12 17 23 26
13 12 11 10 9 9 9 7 8 8 6 6 5 6 9 10 9 9 8 7 7 6 5 4 6 9 12 17 11 11 17 22 7 5 9 14 19 19
13 12 11 11 9 10 9 9 8 8 7 6 7 12 10 10 10 10 9 8 9 7 6 5 7 9 11 13 10 8 12 19 22 21 28 30 33 23
11 10 10 9 8 8 9 9 9 7 7 8 10 7 7 11 11 12 11 11 10 9 9 9 8 8 8 8 8 6 7 12 17 24 25 27 27 27
12 11 11 10 9 10 10 9 8 8 7 6 6 7 9 10 10 8 10 11 10 10 10 10 6 6 7 7 5 5 3 6 11 14 16 18 21 24
11 9 7 7 7 7 7 7 8 8 8 7 9 9 12 12 10 11 10 5 3 6 11 9 7 8 7 6 4 2 2 2 6 9 12 12 15 15
10 9 6 5 4 5 6 7 6 7 8 11 10 9 8 8 8 10 10 8 5 6 8 5 7 8 9 7 5 2 2 3 4 6 8 10 12 14
10 9 8 6 7 8 6 6 6 6 7 6 9 10 9 9 9 9 7 8 8 7 9 4 7 8 7 6 4 2 2 4 6 6 7 9 9 10
8 7 7 9 7 7 8 8 7 6 5 5 5 8 7 8 8 10 6 8 6 7 11 6 5 6 6 5 4 2 4 5 5 7 9 10 10 10
8 8 7 6 7 9 9 5 7 6 5 6 5 5 3 3 6 7 5 12 5 4 8 9 7 6 3 6 6 4 5 6 5 7 9 10 11 11
8 6 6 9 10 9 8 8 6 4 5 5 4 4 3 2 5 9 7 10 13 11 5 11 9 10 4 2 8 8 8 7 9 8 9 9 11 11
10 8 7 9 9 9 8 6 6 7 7 4 5 7 7 6 6 6 9 11 12 14 10 11 5 10 7 4 2 10 13 12 11 12 10 10 11 12
10 9 7 6 8 8 7 6 6 7 6 6 9 9 10 10 8 7 7 8 8 9 10 10 10 8 9 4 3 6 9 15 16 14 13 14 13 13
12 9 9 7 6 5 5 7 10 9 8 9 9 9 10 10 9 8 7 7 6 7 9 9 9 9 10 11 9 6 8 4 8 18 17 15 15 15
13 11 10 9 8 8 9 10 10 11 12 12 9 12 11 10 10 9 8 8 7 5 7 8 8 9 11 11 12 15 14 14 13 8 14 17 18 18
15 14 13 13 13 12 11 11 11 14 16 14 13 15 14 12 10 11 10 11 11 10 8 8 8 7 8 12 18 19 15 17 16 14 14 15 18 16
16 16 17 17 17 15 14 13 15 15 15 16 16 16 15 13 12 13 12 12 13 12 11 11 10 9 3 2 5 7 18 17 15 16 17 19 20 15
20 19 20 18 16 16 15 16 17 16 17 17 17 17 16 16 16 16 15 15 14 14 14 15 16 17 17 6 4 6 6 14 16 19 19 18 19 18
23 23 20 16 14 16 17 16 16 17 17 17 17 16 16 17 18 17 16 15 15 17 18 19 20 15 16 17 12 15 20 17 15 16 14 16 16 16
23 22 19 18 17 15 16 16 15 15 15 15 15 15 15 16 18 17 17 18 19 20 22 20 15 13 17 18 16 17 16 16 16 17 21 21 11 6
21 19 18 17 16 16 16 16 15 15 14 14 14 13 14 16 16 17 17 17 18 19 19 19 17 16 20 23 21 21 20 19 18 20 24 25 28 28

GFSNE_925_spd_117.txt.gz
Wind_Speed
27 20 18 18 15 12 10 10 7 3 3 7 6 6 3 3 4 6 8 10 10 7 8 9 11 11 13 16 21 21 21 24 32 32 24 19 21 26
21 15 17 17 13 12 12 12 12 10 2 4 3 5 4 6 10 9 8 8 8 10 9 9 10 12 13 18 22 22 19 25 32 26 16 13 16 24
17 18 16 15 15 12 12 11 10 11 9 5 5 6 6 8 10 11 9 10 10 9 9 8 9 10 14 18 21 18 18 24 23 20 11 10 13 21
22 18 17 15 12 11 11 11 10 9 9 7 5 5 5 7 12 11 11 10 11 8 6 6 9 11 13 14 18 16 15 22 19 16 6 6 11 17
18 18 18 15 13 12 12 11 8 8 7 6 4 5 6 10 10 11 12 12 11 9 7 6 9 10 13 13 14 13 14 19 23 10 4 7 14 14
18 16 14 13 13 12 10 8 7 7 6 5 5 5 6 9 10 12 14 13 12 11 11 10 10 11 10 11 12 12 9 13 18 21 24 24 22 18
15 15 13 11 10 10 10 10 9 9 8 6 4 3 5 9 10 9 10 10 12 12 11 11 10 10 9 8 9 8 8 8 11 16 20 19 23 22
17 14 12 12 10 9 8 8 7 8 8 8 6 7 11 11 11 11 11 5 3 4 6 11 8 9 8 8 8 6 5 4 4 9 12 13 19 22
15 15 14 11 10 9 8 7 7 7 8 9 10 10 10 10 10 9 10 8 6 5 4 7 7 8 8 8 8 4 3 2 2 2 5 8 11 12
15 14 12 10 9 9 8 7 6 5 5 6 8 11 12 11 10 8 7 8 9 8 6 4 5 7 7 7 5 3 1 3 3 2 3 4 7 12
14 12 11 10 9 11 10 9 6 6 5 5 5 7 9 10 10 10 8 6 4 5 8 5 4 5 7 7 4 2 1 2 3 4 4 5 7 9
14 13 11 10 11 10 10 10 9 6 7 6 6 5 5 5 7 7 6 7 5 3 5 6 3 3 3 3 4 3 3 4 3 6 5 6 8 10
16 15 13 11 11 10 10 10 8 6 6 7 6 5 5 3 5 7 6 7 9 7 3 5 2 4 4 3 3 6 6 6 7 7 8 6 8 9
17 14 12 12 12 11 11 9 7 7 6 7 8 7 7 5 4 5 6 8 11 12 9 8 4 5 4 2 3 6 10 10 9 9 7 8 8 8
16 13 12 11 11 11 10 9 10 8 9 9 9 7 7 7 6 6 6 6 7 7 11 12 10 9 9 5 2 2 5 13 14 12 10 12 11 12
14 14 13 11 10 9 11 11 13 11 10 8 7 7 8 7 7 7 6 5 4 6 7 8 8 9 9 10 10 9 7 3 5 14 14 14 14 15
18 15 14 13 12 12 10 11 12 12 13 10 9 9 8 7 8 8 6 6 7 3 4 7 8 9 11 12 11 15 15 14 11 8 10 15 17 18
22 20 18 16 16 15 14 12 14 13 14 12 11 11 11 10 9 9 9 8 10 9 8 5 6 7 8 10 16 20 15 14 13 12 12 13 17 14
23 23 22 21 20 17 14 15 16 13 10 12 12 11 11 11 10 12 11 10 12 11 10 8 8 8 2 2 5 6 11 12 12 13 15 16 18 14
26 23 22 21 20 18 18 17 16 13 12 12 12 13 13 13 14 16 14 14 13 13 11 11 14 16 14 5 3 6 7 8 10 12 15 15 17 18
27 24 21 20 17 15 15 15 15 14 14 14 15 14 14 16 17 17 16 14 13 15 15 17 17 12 14 14 11 12 15 13 15 15 12 11 14 12
24 23 21 18 16 14 14 15 15 15 15 16 16 15 16 16 17 16 15 16 16 18 18 17 13 12 14 15 14 16 17 16 13 14 16 17 11 4
20 19 18 18 17 17 17 16 17 17 17 16 15 14 14 16 15 15 15 15 15 16 16 16 14 15 18 20 18 17 20 20 19 18 19 18 21 23

GFSNE_925_spd_120.txt.gz
Wind_Speed
23 19 19 15 18 21 23 16 9 4 4 6 6 9 8 7 6 6 7 8 6 8 9 11 11 13 15 17 19 23 24 22 23 28 29 27 23 21
24 20 16 8 15 19 16 16 14 11 3 9 10 11 10 8 6 6 7 9 8 8 8 10 10 12 13 17 21 25 24 22 28 31 27 17 14 17
15 19 12 14 21 18 16 14 13 13 5 6 9 10 10 8 6 7 9 10 8 9 9 9 11 12 12 16 20 22 23 23 27 27 21 10 11 12
22 18 17 19 20 17 15 15 13 12 9 8 10 10 9 8 8 9 11 10 9 9 8 7 11 10 13 16 18 22 21 22 27 20 14 7 5 10
30 27 24 22 20 19 16 14 13 12 11 10 10 10 9 9 7 8 10 10 10 9 9 9 9 11 13 14 14 17 17 18 24 23 8 4 4 8
25 24 23 23 21 18 17 16 14 13 13 11 10 9 9 7 7 9 10 9 10 10 11 12 12 13 13 12 13 15 15 14 19 23 16 22 19 15
18 18 19 18 16 16 17 15 15 14 13 11 8 6 6 5 7 5 7 8 10 10 10 11 11 11 10 10 10 12 12 9 13 18 21 14 15 15
21 19 16 16 15 14 12 12 11 12 13 11 10 7 9 6 7 7 8 4 3 5 5 6 9 9 8 7 9 11 11 9 7 10 15 20 19 18
21 20 19 16 15 13 12 11 10 9 9 11 10 11 8 8 7 7 8 7 5 6 6 7 6 6 6 7 7 8 8 7 4 4 7 11 15 20
19 19 16 15 14 14 13 11 10 8 8 8 9 9 9 7 7 7 5 7 9 10 7 4 4 5 7 5 6 4 4 4 3 2 2 6 9 11
17 16 15 15 14 13 12 11 9 8 7 6 6 6 7 8 9 10 8 7 5 4 6 5 4 4 5 7 5 3 1 1 2 1 2 3 6 8
16 15 15 14 14 14 13 14 13 12 10 8 7 6 5 5 6 6 8 9 5 2 4 6 3 3 1 2 2 3 2 3 3 3 3 4 6 6
19 19 16 14 15 14 12 12 11 10 10 9 7 7 6 5 5 8 8 8 9 5 2 5 2 3 3 2 2 4 4 4 4 5 4 3 5 6
21 18 15 16 15 14 12 12 11 10 10 9 8 7 8 6 6 7 9 10 9 10 8 8 5 3 2 2 2 0 6 7 7 4 6 5 5 5
18 17 16 17 16 14 14 13 13 12 10 10 10 9 8 8 9 7 6 6 7 9 10 12 10 9 8 4 1 2 1 8 10 9 8 7 7 8
19 18 18 17 17 15 15 14 15 13 12 9 9 10 10 12 11 7 5 6 6 6 7 7 7 8 7 7 7 8 5 2 1 8 11 10 10 12
21 20 20 20 19 18 17 17 16 16 14 13 13 13 11 11 9 8 8 6 6 2 3 4 5 6 8 9 9 11 11 10 7 6 6 8 13 15
26 25 24 25 24 23 21 19 18 18 18 16 15 14 13 11 11 8 10 7 7 5 4 1 2 4 4 5 9 15 13 10 7 7 8 10 13 10
24 24 22 24 25 25 23 21 22 21 18 19 19 16 15 15 11 11 10 9 8 6 5 5 5 4 2 1 2 3 6 5 4 6 9 11 14 12
26 24 24 26 26 25 24 23 22 19 18 18 18 18 15 14 15 14 12 10 7 6 6 7 9 9 6 3 3 3 5 7 7 8 9 9 11 12
25 25 27 27 26 24 24 23 23 21 20 19 19 18 15 16 15 13 11 10 8 9 11 11 8 6 7 9 6 8 10 7 7 9 11 10 11 9
22 26 27 26 25 24 24 21 21 20 20 19 17 16 15 14 15 12 11 12 12 13 13 9 7 6 9 9 9 10 12 10 7 9 10 11 9 4
26 26 27 26 24 22 21 20 20 20 19 17 16 15 14 14 14 13 11 11 11 11 10 10 9 9 11 12 11 12 14 15 16 16 13 12 15 18

GFSNE_925_spd_123.txt.gz
Wind_Speed
21 20 21 19 20 22 23 22 15 5 6 11 10 13 13 10 8 8 7 9 10 9 7 8 10 10 11 13 16 19 22 24 21 25 30 30 25 22
21 21 23 26 24 22 25 23 21 14 2 15 14 13 14 12 10 9 8 8 9 10 8 9 9 10 12 13 16 19 23 23 22 28 31 26 19 16
25 22 23 27 27 27 22 21 20 15 6 7 9 12 14 13 10 7 7 10 10 9 8 7 10 10 11 14 17 18 22 21 24 29 26 18 13 11
23 17 19 24 23 24 23 22 20 17 11 8 12 13 11 10 10 8 8 9 9 10 8 5 8 9 11 13 16 19 21 21 22 24 22 14 12 8
25 23 22 22 24 21 19 17 16 15 13 9 9 10 10 9 9 8 9 10 10 9 9 8 10 12 12 14 15 16 19 19 21 21 17 12 7 1
31 30 29 31 28 24 20 20 18 17 12 10 9 8 8 8 8 8 9 8 8 8 9 10 10 12 12 13 14 15 17 17 17 20 17 20 8 11
26 23 22 24 23 20 21 20 18 16 14 13 10 8 8 7 7 5 6 7 7 8 8 8 9 9 10 10 11 13 14 15 13 17 16 12 16 21
23 17 15 14 16 16 16 14 15 16 15 14 12 9 12 10 9 7 6 2 2 3 4 4 5 7 7 7 9 12 11 10 9 11 17 11 10 11
19 16 16 16 16 16 14 14 13 15 13 14 14 13 9 10 9 8 7 5 5 6 5 6 4 6 6 7 7 9 9 7 6 6 10 15 15 18
19 20 21 20 19 16 15 10 13 10 10 11 12 10 9 9 8 8 6 6 7 9 7 4 4 5 6 6 7 7 6 6 3 5 4 9 11 19
18 19 20 20 19 18 15 15 14 11 11 11 9 9 9 9 10 10 9 7 4 4 5 4 3 5 8 8 10 5 2 2 1 2 3 7 11 12
18 19 19 18 18 18 17 18 16 17 16 12 9 9 8 8 9 9 8 9 5 2 4 6 1 2 3 3 4 3 2 2 2 2 2 4 6 9
21 20 19 18 18 18 16 17 18 16 14 11 10 9 8 8 8 10 8 9 8 6 2 5 1 1 2 5 5 3 3 4 3 2 1 3 4 6
24 22 21 20 20 19 18 17 15 13 13 13 12 11 10 9 10 10 10 10 10 9 6 7 2 3 2 3 3 3 6 5 4 3 3 3 4 6
20 20 20 20 20 19 17 16 16 15 15 15 14 13 12 10 10 9 9 9 9 10 11 12 12 9 10 7 3 3 1 6 7 6 5 5 5 5
18 19 20 21 21 20 18 18 18 17 17 16 14 12 12 12 12 10 8 7 7 8 7 8 11 10 9 11 9 9 5 1 2 7 10 9 8 8
20 19 21 23 24 23 22 21 20 19 18 17 16 15 14 13 12 12 9 7 6 4 6 7 7 7 9 11 8 9 8 7 4 3 5 6 9 10
25 25 25 26 25 26 27 26 24 23 22 19 18 17 16 15 13 10 10 9 7 7 6 5 5 5 6 8 11 12 8 7 4 5 7 7 7 6
26 27 25 25 25 26 28 29 28 28 24 23 21 19 16 14 15 12 10 9 9 8 6 6 7 7 2 1 0 3 3 4 3 0 4 7 8 6
25 23 25 25 25 26 27 28 27 23 24 23 23 20 19 17 18 14 13 12 9 8 8 9 11 10 7 4 2 3 2 3 3 3 3 4 6 6
24 25 25 25 27 29 29 28 28 28 25 24 23 22 21 20 18 15 13 12 11 10 10 11 6 6 8 8 4 3 1 2 2 3 4 5 4 3
24 23 25 25 26 27 27 27 27 26 25 23 23 22 21 20 18 17 16 16 16 13 10 5 5 7 9 9 6 4 3 1 1 5 5 6 5 2
23 24 25 26 26 26 27 27 27 26 26 24 24 22 22 22 20 18 15 14 14 15 14 11 9 10 11 10 8 6 5 7 8 7 4 6 9 12